GFSFLT2_sfc_temp_000.txt.gz
Temp
88 89 89 83 79 89 79 81 75 80 82 90 95 95 98 98 98 99 98 98 97 96 95 94 93 92 91 89 88 89 89 87
86 89 90 87 90 77 80 65 63 74 77 79 86 91 96 97 97 99 99 98 100 98 97 96 96 95 93 92 89 90 90 89
83 79 80 82 81 82 84 79 69 67 74 91 88 92 94 99 99 101 100 98 99 100 100 98 98 97 95 93 90 90 91 90
76 87 90 89 83 83 74 70 78 76 78 97 96 96 98 99 103 105 102 100 99 101 101 99 97 98 97 96 94 93 93 90
71 81 86 82 85 85 85 83 74 70 76 96 96 95 97 96 100 101 97 98 98 100 98 98 98 97 98 97 98 97 94 92
69 73 81 76 80 84 83 77 76 78 81 88 91 92 96 98 98 99 95 94 95 96 96 96 96 95 96 97 99 99 97 94
79 81 82 81 80 81 79 80 76 80 81 87 90 93 96 100 100 98 93 92 92 94 93 92 93 93 93 96 96 97 95 94
73 80 81 78 81 82 82 82 82 83 82 95 96 96 96 98 99 97 93 93 92 93 93 91 92 91 92 92 94 94 92 91
67 78 77 70 79 81 81 85 84 78 85 92 92 94 95 97 98 96 95 94 92 92 93 93 93 92 91 90 92 90 88 89
68 70 58 78 88 87 83 85 88 87 89 92 93 96 97 99 99 98 97 96 93 96 94 92 95 95 93 91 88 87 85 85
64 66 71 76 81 82 80 80 89 87 90 92 94 91 88 91 93 96 97 97 95 96 93 90 93 92 90 89 87 86 84 83
67 61 58 70 74 78 78 70 89 91 88 90 90 81 92 87 91 94 96 95 93 93 92 91 91 92 89 88 86 84 84 83
66 62 68 71 74 78 63 73 91 89 88 88 85 87 84 87 88 92 92 90 91 91 90 89 90 91 88 88 86 87 86 82
66 60 58 72 76 67 72 79 81 83 85 85 82 83 84 86 86 87 88 90 92 89 87 89 90 90 87 86 87 86 84 78
68 69 67 71 68 75 81 79 81 82 84 84 84 83 85 86 87 89 90 91 93 89 86 87 87 88 85 83 83 82 76 74
66 67 68 68 72 76 80 80 83 85 86 86 83 85 84 85 86 86 87 87 90 88 86 82 82 84 83 80 81 80 75 74
66 64 69 69 69 72 74 78 80 82 82 82 82 81 79 78 82 83 83 85 87 86 84 81 81 81 81 80 79 77 74 73
65 63 59 56 65 70 71 74 77 77 76 77 79 78 76 75 79 78 81 82 82 82 81 80 80 79 80 78 77 76 73 76
67 66 60 58 62 70 68 70 73 74 78 75 78 79 79 76 75 70 77 78 80 81 81 80 80 80 81 81 80 78 80 79

GFSFLT2_sfc_temp_003.txt.gz
Temp
92 93 91 86 81 92 81 84 77 82 87 95 98 99 101 102 104 105 103 103 101 100 99 97 96 95 94 92 90 91 91 90
91 94 92 88 94 80 83 67 66 78 80 83 89 92 97 99 101 103 105 103 103 102 100 99 99 97 96 95 91 91 92 92
88 84 82 84 84 86 86 82 71 70 78 95 92 94 95 99 102 105 104 103 103 103 103 101 100 99 97 96 93 92 93 92
81 91 93 90 85 85 78 72 80 79 80 99 99 99 99 100 103 106 105 105 105 105 104 102 101 100 99 97 96 94 94 93
75 84 89 84 86 88 88 86 76 74 78 99 99 99 100 100 102 103 105 105 105 105 105 103 102 100 102 100 100 99 95 94
72 75 84 79 82 86 86 79 78 79 82 90 94 94 97 99 101 103 104 101 103 104 104 104 102 98 99 101 102 101 98 96
82 84 85 84 83 84 81 83 78 82 83 89 94 95 98 101 101 101 102 102 100 101 101 99 99 97 98 101 100 101 97 96
76 83 83 80 85 85 84 84 84 85 84 96 98 99 98 99 99 99 101 103 100 99 100 99 99 98 98 98 100 99 95 95
68 79 79 73 80 83 85 87 86 79 86 94 93 95 97 99 99 99 101 103 103 99 99 99 99 98 98 96 98 96 94 94
70 74 60 79 87 89 85 87 90 89 90 92 94 97 100 102 101 100 102 103 104 104 100 99 101 101 99 97 93 93 91 91
66 67 69 75 79 79 76 79 91 90 91 94 97 98 96 102 104 103 104 106 106 104 102 98 99 98 96 94 92 91 89 89
69 63 61 77 80 85 85 72 90 91 90 92 95 87 92 101 102 101 103 106 105 102 101 97 97 97 94 92 90 89 89 88
66 65 72 77 81 85 67 72 82 85 86 90 90 94 92 96 97 98 100 101 100 99 95 94 97 96 90 90 88 90 90 88
68 64 61 80 81 72 75 81 84 85 87 87 95 92 90 91 92 95 96 96 97 93 92 94 95 92 89 88 90 90 88 86
72 70 75 79 78 81 83 82 84 85 90 91 89 88 89 89 90 91 91 92 94 92 90 92 92 91 88 88 88 87 85 80
74 72 73 77 80 83 84 83 86 89 89 90 87 88 89 90 91 91 91 90 92 90 88 87 90 90 88 87 87 84 77 75
68 70 72 73 75 77 78 82 83 80 81 79 82 82 83 81 83 87 87 89 88 86 85 84 85 84 86 85 85 78 74 74
67 72 70 68 74 77 74 75 77 77 76 79 79 78 79 80 83 83 84 85 84 84 84 83 83 83 83 83 83 79 76 77
64 73 69 69 72 71 72 72 78 79 79 78 81 83 81 80 79 72 83 84 84 84 84 84 84 83 80 81 82 78 79 78

GFSFLT2_sfc_temp_006.txt.gz
Temp
92 94 91 84 78 88 78 80 74 80 86 93 98 94 91 95 102 102 101 101 101 99 97 93 92 91 89 86 85 85 86 84
91 93 92 88 91 76 78 64 63 75 77 81 87 91 92 93 95 102 104 101 102 101 98 96 95 93 92 90 86 86 87 86
89 83 81 83 81 82 83 79 69 67 75 93 89 92 93 96 100 102 103 101 103 102 101 98 97 94 93 91 88 87 87 87
80 91 92 89 83 82 73 69 78 76 78 98 93 97 98 98 100 102 101 102 103 103 101 98 96 95 94 93 92 89 88 87
73 83 89 84 85 85 84 82 72 71 76 96 96 94 96 98 99 99 103 100 102 104 99 98 96 94 95 94 94 93 89 89
71 74 83 79 83 85 83 75 75 77 81 87 91 91 96 96 98 100 100 96 100 100 99 98 95 92 92 94 96 94 91 90
80 83 85 83 82 83 80 80 74 81 81 87 91 92 92 98 98 98 99 96 98 99 95 93 92 91 92 94 93 95 90 90
74 82 82 80 84 85 84 83 82 83 83 95 97 97 92 96 96 95 96 98 97 96 97 95 93 91 92 92 92 93 89 89
67 78 79 72 80 83 85 87 85 78 85 93 91 91 94 92 95 95 97 98 98 97 96 97 97 93 92 91 93 91 88 89
69 72 58 79 89 89 85 87 89 88 89 91 91 93 95 97 95 92 97 98 98 102 98 96 102 101 96 94 90 89 88 87
65 65 72 77 84 83 81 80 89 88 90 93 95 96 92 98 99 98 98 100 99 103 102 95 98 97 94 93 91 90 89 87
67 60 58 74 82 88 85 71 85 85 85 87 90 84 89 97 101 101 102 103 100 101 101 96 95 98 93 92 91 89 89 88
64 63 70 75 82 85 66 71 82 85 84 85 83 86 88 94 93 95 100 100 102 99 95 93 94 96 90 90 88 90 90 89
65 61 57 83 76 70 76 83 84 85 86 85 88 89 92 94 93 93 94 98 100 95 92 92 93 90 87 86 88 88 86 86
67 68 76 82 79 83 85 82 82 83 87 89 89 91 91 91 91 93 95 96 97 92 89 91 89 87 84 84 85 84 83 82
68 75 78 80 84 85 85 78 79 77 76 77 86 89 89 90 90 89 91 89 90 88 85 84 85 86 85 85 84 83 80 78
68 72 74 76 79 80 79 80 78 75 74 72 73 72 78 80 80 84 83 82 84 84 83 83 84 83 85 84 82 78 77 76
55 71 69 69 76 77 76 77 78 75 73 71 70 69 69 71 73 75 76 78 78 82 81 80 82 82 82 81 79 77 76 75
52 60 65 71 74 77 74 75 78 78 78 74 70 71 69 68 67 67 76 81 82 82 82 81 80 80 82 80 79 77 75 73

GFSFLT2_sfc_temp_009.txt.gz
Temp
85 86 82 72 68 76 60 61 56 65 70 80 85 86 89 88 88 90 94 91 92 90 89 87 87 84 83 81 81 81 81 80
84 86 84 78 76 65 69 54 53 63 64 67 72 81 82 83 85 88 90 91 93 91 89 88 88 86 85 83 81 82 82 81
75 74 73 73 71 69 66 68 57 54 63 74 76 79 81 85 89 89 90 93 93 92 91 89 89 87 85 83 82 82 82 82
69 80 84 81 70 69 59 55 59 62 64 83 86 81 87 87 87 90 85 92 95 94 92 88 88 88 86 84 83 83 83 83
62 71 78 75 78 72 74 60 59 53 64 86 88 81 85 85 87 88 85 90 93 94 91 89 88 88 87 86 84 85 84 83
61 62 68 66 75 77 72 64 63 66 67 74 78 79 81 87 86 88 86 85 89 91 90 90 89 88 88 87 87 85 84 83
72 75 75 75 74 77 71 72 63 67 69 73 79 80 80 84 83 86 87 83 84 90 89 89 88 88 88 88 88 87 85 83
62 74 76 73 77 78 78 77 74 74 72 75 80 81 81 83 85 86 85 85 84 85 89 88 87 86 88 88 89 89 85 84
56 67 68 63 73 75 75 79 77 69 77 77 77 78 77 82 85 85 83 86 86 84 82 90 88 89 87 87 89 88 86 84
56 57 48 66 78 80 78 78 79 76 76 77 77 78 79 83 84 84 88 84 84 90 84 83 90 90 90 88 87 86 85 83
51 53 58 69 75 72 71 71 75 72 75 77 78 75 76 82 82 86 90 89 83 83 87 87 89 90 89 87 85 85 83 83
51 49 50 61 76 81 77 59 74 75 73 74 75 64 67 76 80 80 83 83 85 87 82 84 86 91 88 86 86 84 86 84
53 53 59 67 74 79 58 57 72 75 74 73 68 70 75 79 77 80 79 81 82 85 85 84 83 90 87 87 86 87 87 82
54 52 50 72 72 66 62 70 71 71 71 72 72 75 78 78 77 78 77 82 81 81 81 81 81 87 85 86 85 81 83 79
55 54 65 70 66 67 68 66 68 67 70 70 67 70 73 76 78 79 78 78 80 78 76 76 79 83 79 77 80 81 78 76
57 65 66 66 72 69 67 66 69 69 68 67 64 65 65 67 70 74 75 75 77 78 75 75 77 78 78 79 80 78 74 73
53 61 63 63 64 70 69 69 69 68 67 65 65 63 63 63 63 65 70 73 76 76 76 74 77 77 78 79 78 74 72 71
48 53 54 59 64 68 67 68 68 67 65 64 62 60 62 60 60 62 62 66 74 75 75 74 74 74 74 74 73 71 70 70
54 56 58 63 65 70 67 68 69 69 68 63 62 60 60 59 60 60 62 61 69 72 73 72 73 72 73 73 73 72 70 70

GFSFLT2_sfc_temp_012.txt.gz
Temp
79 79 75 68 58 70 54 48 50 57 62 71 76 78 82 83 83 85 88 88 89 87 87 86 84 82 80 78 80 79 79 79
77 78 78 70 71 57 50 49 49 54 56 64 69 73 75 81 82 87 89 90 91 90 88 87 87 84 82 80 80 80 80 80
68 67 67 67 64 56 60 58 54 45 60 69 71 72 73 81 87 89 89 89 91 91 89 88 87 84 82 80 80 80 80 80
65 72 76 76 69 63 61 51 56 63 63 74 76 77 76 79 86 90 91 89 89 91 89 87 85 84 82 81 81 81 81 80
55 63 62 64 71 72 55 55 59 52 56 75 76 76 77 78 81 82 85 83 84 88 87 86 85 84 83 82 82 82 82 80
58 63 64 60 68 70 68 63 61 61 58 66 69 71 74 77 83 84 85 85 87 87 87 86 85 85 83 83 83 83 82 81
58 68 72 70 68 71 66 68 63 68 61 66 70 71 77 81 81 80 88 82 85 87 87 84 84 85 84 84 83 83 82 81
51 65 72 70 72 73 71 72 70 65 64 72 77 76 75 79 82 80 81 81 84 88 87 85 85 84 85 84 83 83 81 81
40 58 67 61 71 72 71 72 72 64 69 71 71 72 73 77 77 79 78 80 82 87 88 88 87 86 84 84 84 83 82 81
42 48 47 61 78 77 71 72 73 75 74 75 77 80 74 77 79 78 82 79 85 86 88 89 90 87 87 86 84 82 82 81
41 41 54 64 67 69 66 64 70 70 74 74 75 73 68 75 76 81 80 81 80 82 82 82 88 87 86 85 84 83 82 81
48 44 44 57 69 76 71 54 70 68 69 72 70 67 64 73 76 79 76 80 81 82 77 83 87 89 86 84 84 83 83 83
49 48 53 62 67 73 58 57 67 68 67 67 66 66 71 72 76 75 77 80 79 75 79 80 84 86 84 84 83 85 86 85
48 45 43 66 66 62 61 61 65 65 64 64 64 65 68 71 72 76 77 79 80 75 74 80 81 85 84 83 86 86 85 82
49 46 56 60 58 64 62 60 61 61 63 64 63 62 64 63 66 69 69 72 73 74 73 71 73 85 84 85 85 81 80 79
51 55 54 58 62 63 63 62 64 64 63 62 60 62 61 61 61 62 63 65 67 69 70 72 73 76 83 81 82 81 77 75
49 53 54 58 60 61 64 65 64 64 63 61 61 59 59 58 59 60 62 63 63 62 62 62 73 74 76 79 78 76 73 73
47 51 51 53 59 61 61 61 63 62 60 60 61 58 58 57 58 60 62 62 61 60 60 62 61 67 75 75 75 72 71 70
52 54 53 57 61 63 61 63 65 64 62 61 60 59 58 57 58 60 62 62 62 63 63 62 65 63 70 73 72 72 71 69

GFSFLT2_sfc_temp_015.txt.gz
Temp
75 72 72 60 57 65 49 43 46 51 59 66 73 74 75 80 83 83 83 85 85 85 85 84 83 81 79 78 78 78 77 77
72 73 71 69 67 54 45 45 45 49 53 56 64 70 71 75 78 81 82 84 86 86 86 86 86 84 81 80 79 80 79 79
64 60 62 58 62 52 54 51 49 48 55 67 68 70 71 73 78 81 81 84 86 87 87 87 86 84 81 80 80 80 80 80
60 66 74 70 66 56 53 49 49 55 56 68 75 75 72 75 76 80 84 85 87 88 88 86 85 84 81 81 80 81 81 80
49 54 59 61 64 65 61 52 58 51 54 69 72 72 72 74 74 77 78 83 85 88 84 85 84 83 81 81 81 82 81 80
44 49 57 56 64 68 62 55 60 61 58 62 67 69 72 72 74 75 77 81 81 79 82 83 84 83 81 81 82 82 81 80
47 53 56 59 62 67 61 65 60 65 59 66 67 69 72 74 74 74 76 78 82 82 83 82 82 83 81 81 81 82 80 79
44 56 58 58 64 67 68 68 66 67 58 69 74 70 70 74 74 76 77 78 80 88 88 84 84 82 82 81 81 82 80 79
35 49 50 51 62 66 70 69 69 63 65 69 70 70 70 73 72 75 78 77 80 80 83 84 84 84 82 81 82 80 80 80
36 41 39 58 66 73 70 68 68 66 69 70 74 78 75 73 73 74 76 76 76 81 84 85 85 85 85 83 81 79 79 79
36 36 47 59 64 63 67 64 69 69 70 70 71 68 69 71 72 75 76 76 77 81 83 84 85 85 84 82 81 79 78 79
38 36 38 51 60 64 62 62 67 67 68 70 68 63 73 69 73 76 76 73 75 75 76 77 82 85 83 81 80 78 80 80
41 39 47 54 58 63 51 59 67 68 66 64 65 69 69 69 71 72 72 74 73 73 72 78 78 80 80 80 80 82 82 82
42 40 38 57 58 52 54 58 63 64 62 62 62 63 64 64 65 65 65 67 69 69 67 66 71 74 80 80 83 83 83 81
47 46 52 55 58 60 59 57 59 60 62 63 62 60 60 61 61 62 62 63 65 64 63 64 69 67 72 80 82 83 82 81
47 54 54 57 59 60 60 59 60 60 60 60 58 59 59 60 60 61 62 63 63 65 63 62 62 66 67 70 75 76 80 80
48 52 56 57 58 58 59 62 61 60 60 58 59 57 57 57 57 59 59 60 60 60 60 61 62 63 65 64 66 73 73 71
45 51 52 52 55 60 58 58 59 59 58 58 59 56 58 57 57 58 59 60 60 60 60 60 61 65 64 65 67 68 71 72
51 53 54 54 56 59 59 58 61 60 60 59 58 58 58 57 58 58 60 61 62 62 63 62 64 67 65 63 65 63 69 72

GFSFLT2_sfc_temp_018.txt.gz
Temp
69 68 69 55 55 59 46 41 43 48 55 65 69 71 71 76 79 78 81 81 81 83 83 81 80 79 77 76 75 76 76 76
69 70 66 62 62 51 42 40 38 45 49 55 60 68 70 70 73 79 81 82 83 83 83 83 83 81 80 78 76 77 77 77
61 59 62 56 54 49 53 45 41 40 51 60 65 66 70 74 75 78 80 81 83 84 85 85 85 83 80 79 78 77 77 77
54 60 69 70 63 54 52 45 44 45 53 67 69 74 71 73 73 76 77 79 82 84 85 84 83 84 82 80 80 79 78 77
46 53 57 55 62 59 56 49 52 47 53 75 69 69 72 70 71 72 73 74 77 81 82 83 83 82 83 81 81 81 80 78
39 43 48 49 56 60 60 55 56 57 60 61 64 67 69 69 70 73 72 72 72 76 81 82 82 81 80 81 82 81 81 79
43 49 51 52 54 57 54 61 56 62 62 63 65 65 69 73 70 71 73 72 71 74 77 77 79 80 80 80 80 81 79 79
40 51 52 49 55 57 59 59 58 63 58 66 71 69 68 70 70 70 72 74 73 74 75 75 78 78 80 79 79 80 78 78
34 45 46 45 56 59 60 62 63 57 65 69 67 65 68 72 71 70 71 73 73 74 76 79 80 80 80 80 80 78 77 77
33 38 35 51 58 62 62 67 66 68 66 68 72 77 74 74 76 73 72 72 73 77 78 77 81 83 81 79 77 76 76 76
33 33 45 54 55 54 51 53 65 67 69 67 72 71 71 71 70 74 74 72 74 75 75 76 77 81 79 78 77 76 76 76
33 33 34 47 56 61 57 45 58 61 68 70 65 60 66 71 70 71 71 71 72 73 73 73 74 76 77 77 76 75 77 77
36 35 42 53 56 60 48 51 58 59 60 67 65 71 67 65 65 65 67 68 67 67 67 69 73 75 73 74 75 78 79 79
34 33 34 57 57 52 54 58 59 59 59 60 61 62 63 63 63 63 64 67 69 67 67 68 69 72 72 72 75 78 77 77
41 40 50 54 54 58 59 57 58 56 58 60 60 61 63 61 61 62 63 63 65 65 64 65 68 69 68 68 71 75 75 74
42 49 51 55 57 57 58 57 59 58 59 59 59 60 59 60 60 61 62 62 64 63 62 62 64 66 66 69 71 72 71 72
41 48 52 55 56 56 58 59 59 60 59 57 58 57 58 58 58 59 60 60 61 60 60 61 64 65 67 67 67 69 71 70
39 48 49 51 54 57 56 57 58 58 58 58 58 57 59 58 59 60 61 62 63 63 64 63 64 64 64 64 64 65 68 69
47 51 54 54 55 57 56 58 60 59 59 58 59 59 60 60 60 60 62 63 63 63 64 65 65 64 62 63 64 63 63 69

GFSFLT2_sfc_temp_021.txt.gz
Temp
77 78 77 68 65 76 65 62 62 68 73 77 82 84 86 88 89 88 89 88 88 89 89 86 86 84 83 82 81 82 82 81
75 79 78 73 77 62 66 54 53 63 63 70 75 80 83 84 87 89 90 90 90 90 90 89 88 88 86 84 82 82 83 83
73 69 69 68 67 70 71 66 59 58 66 77 78 80 83 86 88 90 90 90 91 91 91 91 90 89 88 85 83 83 83 83
65 76 80 76 72 70 63 57 64 66 67 81 84 86 85 88 89 90 90 90 91 93 92 91 90 89 89 87 86 85 84 82
61 70 72 70 74 74 74 72 60 60 67 85 82 81 86 86 88 86 86 86 88 92 91 90 90 89 90 88 89 89 85 84
59 61 61 60 66 72 71 65 64 65 70 77 80 79 82 84 86 88 86 87 87 87 88 89 89 87 87 89 90 89 87 85
55 57 58 58 60 63 64 68 64 69 70 75 79 80 84 88 86 84 84 87 86 85 84 84 86 86 86 88 88 89 85 84
51 57 59 56 61 62 63 65 66 68 68 81 80 83 82 85 86 86 85 86 88 88 86 84 85 85 86 86 87 86 84 83
47 54 55 52 60 63 65 68 68 63 71 79 79 80 79 82 85 85 88 89 89 88 88 86 86 86 85 85 87 84 81 83
47 50 41 62 70 68 67 71 74 73 75 78 80 83 84 87 86 86 87 88 88 91 90 87 90 92 89 88 83 82 82 82
44 47 54 58 65 63 62 67 72 68 74 79 83 84 82 87 86 85 88 89 88 90 90 86 87 88 87 86 84 83 82 81
46 42 41 59 68 68 66 57 67 66 68 70 79 74 81 89 88 87 88 88 86 87 87 86 85 89 86 85 84 82 83 83
42 42 51 63 65 66 53 61 66 67 67 67 67 77 82 82 82 81 82 83 84 84 84 83 84 86 83 85 83 85 86 85
42 39 37 65 66 59 63 66 67 68 66 63 68 71 76 79 77 78 78 79 81 80 80 81 82 84 82 81 84 84 84 84
48 49 59 63 61 66 66 64 66 66 66 64 66 72 74 74 75 76 76 76 79 79 76 77 80 82 79 79 82 83 82 82
48 55 57 61 65 68 66 65 67 67 63 65 66 69 72 73 74 74 75 75 77 77 76 74 76 77 77 77 79 81 81 81
48 52 56 60 64 66 65 67 66 64 64 65 68 68 70 69 69 71 71 72 74 74 74 72 74 74 75 75 76 78 79 80
46 55 52 54 61 65 65 65 64 62 64 63 66 63 63 63 63 65 66 69 70 71 71 70 72 71 72 72 73 74 75 79
50 56 55 58 59 63 65 65 64 63 65 64 63 63 63 62 64 62 66 66 65 66 68 70 72 71 72 72 74 73 73 73

GFSFLT2_sfc_temp_024.txt.gz
Temp
84 85 84 76 72 84 75 76 71 78 81 89 92 93 95 96 99 100 98 98 97 98 97 94 93 92 91 89 87 87 87 87
82 85 85 82 84 72 75 61 60 72 74 77 83 86 91 93 97 100 101 98 99 99 99 98 97 95 92 91 88 89 89 88
81 76 75 77 76 78 80 75 67 66 75 89 86 89 89 94 97 101 101 101 101 101 101 101 100 97 95 92 90 90 90 89
74 84 86 83 78 78 71 66 73 74 77 92 92 93 94 95 98 101 102 103 103 104 103 101 99 99 98 95 93 92 92 89
69 78 82 78 80 81 81 80 69 68 76 91 90 89 92 93 96 97 98 98 100 103 102 101 100 97 98 98 98 97 93 91
67 70 76 72 77 80 79 72 73 75 78 84 87 87 90 92 94 96 96 96 98 99 100 101 100 97 96 98 100 98 97 93
72 67 69 76 75 78 75 76 72 78 78 83 87 88 90 93 94 94 94 95 96 96 97 96 97 96 95 96 98 98 95 94
62 67 66 66 70 74 76 79 78 79 78 90 92 90 89 90 91 91 93 95 98 99 96 96 96 94 95 95 96 95 94 92
57 66 65 60 68 70 73 76 76 71 78 86 85 85 87 89 91 91 93 95 96 99 100 99 101 97 95 94 95 93 91 91
58 60 48 69 80 77 73 76 79 79 81 83 85 88 90 93 92 93 95 96 97 102 103 103 104 107 100 98 92 91 89 89
51 54 63 67 70 71 70 72 81 80 82 85 87 89 87 93 96 95 96 98 100 103 102 101 100 101 99 96 92 90 89 87
55 48 49 66 75 76 75 64 80 78 79 80 82 77 85 94 98 99 100 99 98 100 100 99 96 99 96 95 93 89 90 89
51 50 59 72 73 74 59 63 75 77 77 77 75 81 84 85 88 91 94 95 96 95 94 95 96 96 93 94 92 92 92 91
51 48 46 72 70 62 66 72 74 76 76 75 76 77 79 81 83 86 90 93 92 90 91 93 92 92 90 89 93 92 91 90
56 56 65 71 69 72 73 71 72 73 76 76 74 75 78 81 83 87 88 89 92 92 89 88 89 90 88 88 90 89 88 87
54 59 62 65 70 72 73 71 74 76 77 76 74 75 76 81 84 84 84 85 88 87 84 82 85 88 87 86 87 87 86 86
53 58 62 65 67 69 71 73 74 76 76 74 73 69 78 80 79 82 81 82 83 83 82 80 81 81 82 83 85 86 86 87
51 61 60 61 68 67 66 67 70 73 73 74 65 68 70 69 69 72 73 75 75 75 76 78 79 79 80 80 81 82 84 87
58 64 64 65 66 67 66 68 72 74 73 65 66 68 68 68 69 65 70 70 71 71 75 77 72 71 73 80 80 80 81 81

GFSFLT2_sfc_temp_027.txt.gz
Temp
89 90 88 80 76 87 80 82 77 81 84 93 97 97 98 100 102 103 103 103 101 101 100 98 97 95 93 91 88 88 89 88
87 90 89 86 88 75 79 65 66 77 79 80 87 90 96 96 99 102 105 103 103 103 101 101 100 99 96 94 90 89 90 89
86 80 79 80 80 81 83 80 71 70 78 93 91 93 93 97 100 102 104 104 104 103 104 103 102 100 98 96 93 91 90 90
79 88 90 87 82 82 73 70 79 79 83 96 98 98 97 97 100 103 105 105 105 105 105 104 102 101 100 98 96 94 92 90
74 82 86 81 84 86 84 84 74 73 78 95 95 95 98 97 100 102 104 104 106 106 105 105 104 102 102 101 99 99 94 93
71 76 81 75 81 84 84 77 77 79 82 87 90 91 93 97 100 101 102 101 104 106 106 106 104 102 102 103 103 101 99 96
77 82 84 81 80 82 79 81 76 82 82 88 90 91 94 96 97 96 97 99 100 101 102 103 103 102 100 102 103 103 99 98
70 79 75 74 82 82 83 82 83 84 85 96 96 96 94 95 95 94 95 98 100 101 100 100 101 101 101 99 100 101 98 97
62 72 72 65 76 81 83 85 85 78 86 94 92 91 91 92 94 94 95 98 99 100 103 102 102 101 100 99 99 97 95 96
61 66 54 74 84 84 81 84 88 87 88 90 89 92 94 95 94 94 96 98 100 104 104 105 108 110 104 103 96 95 94 93
57 62 68 73 79 79 76 76 85 84 86 88 90 91 89 95 96 96 97 100 102 105 106 105 106 107 106 102 99 95 93 92
59 55 56 72 80 83 83 69 85 86 85 87 89 81 86 91 93 95 99 101 101 104 105 105 104 106 104 102 100 94 93 93
54 54 64 77 80 83 63 64 80 86 84 85 81 84 84 87 88 90 91 93 97 98 97 98 100 102 98 100 99 99 97 95
55 52 51 78 77 66 67 73 73 75 77 75 79 81 83 85 85 88 90 93 96 95 96 96 97 98 95 93 98 98 96 93
59 60 70 75 73 78 77 73 74 75 79 79 80 80 82 81 84 87 90 91 95 95 95 95 94 93 91 93 95 95 93 91
59 64 67 71 75 76 75 75 76 77 79 80 79 80 79 81 86 88 89 88 91 91 91 88 89 92 92 91 92 91 90 89
59 63 66 68 71 73 74 76 75 77 76 77 79 79 77 79 82 85 85 85 87 87 86 84 84 84 86 86 88 89 88 89
54 64 64 64 71 73 71 72 73 73 73 76 78 77 75 76 78 78 76 76 77 80 82 82 82 80 82 84 85 87 87 90
60 66 66 69 72 74 72 73 72 73 74 74 78 77 74 72 73 69 72 73 76 80 75 75 73 76 82 83 84 83 84 85

GFSFLT2_sfc_temp_030.txt.gz
Temp
88 90 88 80 74 85 75 77 71 76 80 89 94 94 98 100 101 101 101 102 99 98 96 93 92 90 88 85 83 84 84 83
86 90 89 85 87 73 76 61 62 73 76 77 84 89 94 96 99 101 102 101 101 99 97 95 95 93 91 88 84 84 85 85
85 80 78 81 79 79 80 76 67 67 75 92 86 90 92 96 99 101 101 101 102 101 100 97 97 95 93 90 87 86 85 85
77 88 89 86 80 81 71 67 76 75 77 95 96 96 97 97 98 102 102 101 103 102 101 99 96 96 94 93 91 88 87 85
69 82 86 81 83 83 83 81 70 70 76 95 95 96 97 97 99 98 100 101 102 103 101 99 98 96 96 94 94 93 88 88
67 72 82 76 80 83 81 73 74 76 79 85 90 92 95 95 97 99 98 98 100 101 99 100 98 95 95 96 97 95 93 90
75 81 83 80 79 81 78 80 74 80 81 84 88 90 94 96 96 97 97 99 99 100 95 95 95 94 95 97 95 97 92 90
68 77 79 76 81 81 82 82 83 83 84 92 93 94 93 92 93 92 93 97 99 100 100 99 97 95 95 95 97 96 91 91
59 70 73 69 78 81 82 85 85 79 86 92 89 90 90 92 93 93 94 96 97 99 99 98 99 97 95 94 96 94 91 91
58 64 53 74 86 85 84 86 89 88 90 92 91 93 93 95 94 94 95 96 97 100 98 97 103 104 99 98 92 91 90 89
55 58 67 74 79 80 78 80 90 88 91 90 91 92 89 94 96 95 96 96 97 101 100 96 98 98 96 95 92 91 90 88
56 54 53 70 82 88 87 70 81 86 86 88 89 79 80 85 88 90 91 92 92 94 96 100 101 102 99 95 93 89 90 89
54 53 63 68 79 86 66 59 74 79 83 85 80 79 82 86 85 87 89 91 93 92 90 93 93 94 91 95 92 93 92 92
55 52 49 72 74 64 66 71 73 74 76 76 78 81 82 82 82 84 86 90 93 92 91 94 95 92 88 89 93 94 92 89
58 59 68 72 71 75 76 72 73 73 76 77 78 79 80 80 80 83 88 90 91 90 90 93 93 91 88 88 92 93 92 88
58 63 65 70 74 76 76 74 73 76 76 77 75 77 78 79 78 79 85 85 86 86 88 86 87 88 89 90 92 92 91 88
56 63 66 68 71 72 73 74 73 75 76 75 74 74 76 77 76 77 79 79 81 83 86 83 83 83 85 85 86 88 89 88
52 62 61 63 69 74 72 72 73 72 73 74 74 73 75 76 75 75 76 78 78 80 83 79 79 79 82 84 85 85 86 87
52 57 59 64 68 71 70 72 75 75 75 72 73 74 75 75 73 70 73 76 76 77 74 76 77 80 82 83 84 83 84 86

GFSFLT2_sfc_temp_033.txt.gz
Temp
81 82 79 70 64 70 54 57 52 59 67 75 82 84 84 86 91 87 87 90 88 88 88 88 86 85 83 80 80 80 80 80
79 82 81 74 75 61 63 47 48 58 63 65 73 79 82 82 86 90 89 88 90 89 89 88 89 87 85 82 80 80 81 81
75 71 70 71 67 69 61 57 48 48 59 79 77 80 80 84 84 94 92 91 90 89 90 89 90 87 85 83 81 80 80 81
63 77 82 77 72 70 61 54 58 57 62 79 80 85 85 87 85 88 93 92 91 90 90 89 89 88 86 84 82 81 82 81
58 65 74 73 75 73 66 60 57 52 57 82 79 86 85 85 85 84 87 91 92 91 90 89 89 89 87 87 84 83 82 81
51 60 66 68 73 75 68 63 63 60 64 73 76 77 79 81 82 84 84 90 92 92 91 90 90 89 88 88 88 85 84 82
60 67 70 72 73 74 70 67 64 66 65 69 71 75 77 80 83 84 83 87 91 91 91 90 89 89 89 89 89 89 85 84
54 67 70 69 76 76 75 74 70 72 68 76 77 77 79 79 80 79 80 82 86 90 91 91 91 89 90 89 89 90 87 84
45 62 66 57 69 75 75 78 75 66 70 75 75 78 78 78 80 81 82 83 83 84 83 83 89 91 89 90 91 90 88 87
46 53 45 61 72 78 77 77 81 78 78 76 76 75 76 77 79 81 82 81 81 82 84 83 83 91 92 91 88 88 87 86
43 48 55 65 69 67 68 61 68 69 79 81 78 76 73 78 79 75 76 77 78 79 79 80 82 83 88 86 87 85 87 85
47 43 45 53 65 72 74 51 68 70 72 79 75 62 64 74 77 78 78 79 80 81 80 80 80 81 81 84 88 86 85 83
47 46 49 61 67 69 54 51 66 68 69 69 66 66 69 74 74 76 77 78 80 79 78 78 80 79 78 79 78 84 83 80
47 45 39 63 65 54 59 64 65 65 66 67 69 71 71 71 72 74 76 79 80 76 76 78 81 80 76 77 80 83 82 80
47 46 58 59 60 67 68 65 64 62 66 67 67 68 69 68 69 71 74 74 77 77 77 76 77 77 75 75 78 80 80 77
48 55 57 61 66 67 67 66 66 66 66 67 64 66 66 67 68 69 71 73 75 74 75 73 75 76 74 75 77 77 79 78
48 54 55 58 58 61 64 67 69 67 66 66 65 63 63 63 65 67 68 70 71 71 73 72 72 72 74 75 76 75 77 77
39 49 47 50 56 59 59 62 64 65 67 67 65 62 63 62 63 64 65 67 68 69 70 70 71 72 73 74 75 74 75 77
43 50 50 52 56 59 60 62 65 63 64 61 64 64 63 62 63 64 65 66 67 68 69 70 70 70 73 74 73 73 73 74

GFSFLT2_sfc_temp_036.txt.gz
Temp
76 77 74 62 60 62 50 44 47 55 58 68 75 75 78 78 80 80 81 81 85 86 86 86 82 81 80 79 80 79 79 79
72 77 75 70 68 54 48 42 39 50 53 62 68 72 73 78 79 80 81 84 85 86 86 87 85 83 82 81 81 80 80 81
63 67 66 62 64 58 58 50 46 43 57 67 69 70 75 77 82 82 82 84 84 86 87 88 87 84 82 81 81 80 80 80
55 67 72 73 63 63 57 48 48 49 59 73 78 78 79 78 81 82 84 84 86 87 87 87 86 85 82 81 81 81 80 80
46 55 63 62 68 66 56 54 52 54 59 73 75 75 78 83 82 84 84 86 88 87 86 86 87 85 83 82 81 81 81 80
34 47 54 56 64 67 67 57 56 59 61 69 72 75 73 80 79 81 88 87 87 86 86 86 87 86 84 83 82 81 80 79
45 51 54 55 64 69 63 65 61 63 62 66 70 71 71 74 76 80 85 86 87 86 86 86 85 86 84 84 83 82 80 79
41 57 59 61 66 67 70 69 63 62 64 69 75 72 72 72 76 79 84 86 87 87 87 86 86 86 85 84 84 82 80 79
35 51 60 53 59 65 70 70 70 58 66 70 69 68 67 72 77 74 80 86 87 87 88 87 87 88 85 85 86 83 81 81
36 45 43 54 63 63 62 61 61 62 66 68 68 70 70 72 72 75 77 77 76 80 83 83 86 88 88 86 85 84 82 81
36 41 50 52 54 58 54 54 61 60 69 71 72 72 68 71 72 70 72 73 74 77 76 77 86 88 88 86 85 84 83 82
38 37 38 47 57 68 64 46 61 62 64 68 70 57 59 67 71 71 73 73 74 76 76 77 74 77 87 86 85 84 84 84
43 41 44 54 58 68 45 48 62 61 62 61 59 60 63 69 69 71 72 72 73 74 72 73 75 75 75 78 84 87 86 86
41 37 35 55 55 47 54 61 62 62 60 61 62 64 65 67 67 68 69 71 73 73 73 74 73 74 72 73 75 78 77 76
38 39 49 52 49 57 58 59 61 61 60 61 62 62 64 63 65 67 68 69 71 71 71 73 73 73 71 71 73 75 75 75
42 46 48 50 52 55 58 57 64 64 61 61 59 61 61 62 63 65 66 66 68 69 69 69 70 72 71 72 73 73 73 75
41 43 49 53 54 53 55 59 62 64 62 61 60 59 60 59 61 63 64 64 65 65 66 68 68 70 70 72 72 71 72 74
35 42 39 44 52 54 53 55 60 59 59 60 60 59 59 58 58 61 62 63 64 64 66 67 68 68 69 71 70 70 70 72
41 47 47 46 48 51 52 56 60 59 59 58 61 58 58 57 59 60 61 63 62 63 65 66 66 67 68 70 69 69 68 69

GFSFLT2_sfc_temp_039.txt.gz
Temp
71 72 69 58 56 60 47 41 45 54 54 66 70 74 75 77 79 79 79 80 81 84 84 82 81 79 79 77 77 77 77 77
61 72 71 65 65 51 46 40 40 46 51 56 63 66 70 74 76 79 81 81 83 84 84 85 83 81 80 79 78 78 78 78
51 58 61 61 58 57 56 47 47 39 54 62 66 69 71 74 80 79 80 81 82 83 86 86 85 82 81 80 79 78 78 79
41 54 57 69 59 54 56 46 44 45 55 69 70 70 76 78 79 80 81 82 84 84 85 85 85 82 81 81 80 80 79 79
41 48 59 56 65 59 58 50 48 52 55 68 68 70 71 72 76 79 80 82 84 84 84 84 85 82 81 80 80 81 80 79
30 36 43 43 50 62 59 50 52 57 62 69 71 67 69 70 75 80 81 81 82 84 84 85 85 84 82 80 81 81 80 79
36 40 42 44 46 51 54 60 58 58 57 68 69 67 67 69 72 76 81 81 82 83 83 84 84 84 82 81 80 81 79 78
35 45 45 45 53 56 57 62 60 60 61 65 64 63 65 64 70 76 80 81 82 84 85 84 84 84 83 81 80 81 79 78
28 45 51 46 50 54 57 53 55 56 57 66 61 63 62 62 66 77 80 82 83 85 85 86 85 85 82 82 81 80 78 78
28 40 41 48 55 57 55 55 56 55 59 63 62 63 65 65 64 66 77 84 84 87 86 87 87 86 84 83 81 78 78 77
28 39 48 49 51 48 48 49 57 55 59 66 67 69 65 66 68 66 66 69 77 86 85 85 85 85 83 82 81 79 78 78
32 37 36 44 50 56 60 42 60 58 57 60 64 57 60 65 66 67 69 69 70 75 76 79 80 84 82 80 80 78 79 79
35 38 42 48 51 59 40 44 58 61 60 57 55 60 64 65 65 67 68 70 72 72 70 70 74 85 83 82 81 83 82 81
38 36 35 52 50 42 45 55 57 59 61 61 62 62 61 63 64 65 66 68 70 70 70 71 72 74 71 71 72 76 78 78
37 38 48 50 48 51 54 53 54 58 61 63 62 61 59 59 61 63 65 66 68 69 69 69 70 70 70 69 72 73 73 75
40 43 45 50 50 50 52 52 56 59 60 62 60 61 59 57 60 61 63 64 66 67 67 67 67 69 69 70 71 71 71 72
40 43 47 52 50 49 49 52 53 56 59 60 61 60 60 58 58 59 61 62 64 64 66 66 66 67 68 69 70 70 70 71
35 43 42 44 49 51 48 48 51 52 56 59 60 58 60 58 57 58 58 60 61 62 63 65 66 66 67 68 69 68 68 68
41 47 47 49 50 52 49 48 51 53 57 58 61 60 59 56 55 57 60 60 60 61 62 64 65 65 67 67 68 67 67 67

GFSFLT2_sfc_temp_042.txt.gz
Temp
56 61 64 54 52 57 43 38 40 53 52 65 68 73 72 75 76 76 77 78 78 80 80 80 79 78 76 75 75 75 75 75
51 58 62 61 62 49 43 39 34 44 47 56 59 63 69 71 74 76 78 78 79 80 81 81 82 81 78 78 76 76 76 76
46 48 53 55 56 55 54 46 43 37 46 61 62 69 67 72 74 77 78 78 79 81 83 82 83 82 79 78 76 77 76 76
38 50 53 48 53 53 52 44 42 43 52 65 68 68 71 73 73 76 79 80 81 82 83 82 81 81 79 79 77 78 77 76
33 45 49 47 56 56 50 54 50 48 49 67 67 67 69 71 72 75 77 79 81 82 82 83 82 80 79 79 79 80 77 77
28 35 39 37 44 56 51 52 52 55 56 63 66 65 66 68 69 71 72 75 78 80 81 83 82 79 79 79 80 80 79 78
37 37 38 38 41 45 44 49 53 55 57 63 65 66 65 68 69 71 71 74 76 79 79 80 80 79 78 79 79 80 78 77
31 39 40 38 45 47 48 52 55 57 56 59 64 63 62 62 63 64 70 76 77 79 80 79 80 80 78 78 79 79 77 77
25 40 42 37 45 49 50 51 50 52 53 57 59 60 59 62 63 63 66 72 79 79 81 81 82 82 79 78 79 78 77 77
28 34 35 44 52 56 52 52 53 52 54 59 61 62 62 64 64 64 64 72 79 82 82 82 85 85 81 80 77 77 76 76
26 31 44 48 48 45 44 48 54 54 55 58 62 64 63 65 66 67 68 66 75 81 82 81 83 82 79 78 77 77 76 76
31 29 36 41 48 53 52 41 54 54 57 55 60 55 59 64 66 67 70 68 73 75 77 78 79 82 78 78 76 75 77 77
31 32 39 45 49 53 42 41 53 55 57 57 54 56 59 64 65 67 69 69 70 73 75 75 78 80 77 77 76 78 78 78
36 37 35 49 49 41 45 53 53 53 56 59 60 60 59 63 64 65 66 68 70 69 69 71 75 78 75 74 75 75 76 77
34 36 43 48 45 49 52 50 51 52 56 59 59 60 59 59 61 63 64 65 68 69 69 70 71 74 73 71 74 74 74 74
37 41 43 48 50 51 51 50 53 54 55 59 59 60 59 58 59 61 62 63 65 67 67 67 69 70 70 72 73 73 73 73
37 43 45 50 49 50 51 52 53 54 55 56 59 59 59 57 56 59 61 62 64 63 65 65 67 68 70 71 72 72 73 74
35 43 42 43 48 51 49 49 51 51 52 55 58 57 59 58 56 57 57 60 62 64 64 65 66 67 68 69 70 71 71 72
41 46 46 48 49 51 49 50 52 51 52 52 55 58 59 59 59 57 59 60 59 62 64 65 66 66 67 68 68 69 69 70

GFSFLT2_sfc_temp_045.txt.gz
Temp
60 60 61 64 58 70 60 59 57 64 68 75 79 81 84 84 85 83 82 83 83 84 85 84 83 83 82 81 80 80 81 81
55 59 65 62 72 57 60 48 47 59 62 65 72 76 81 83 84 84 85 84 85 85 86 86 86 86 85 83 80 81 82 82
53 53 58 62 59 64 65 60 53 52 60 76 75 78 80 82 86 87 86 86 86 87 88 87 88 87 86 84 82 82 82 82
45 56 59 56 51 62 57 53 60 59 62 78 81 83 85 86 87 89 87 87 88 88 87 88 87 88 86 86 85 84 83 82
44 54 57 52 57 56 64 65 58 54 59 80 79 80 81 85 89 85 86 87 87 89 87 88 88 87 88 87 87 87 85 83
37 44 49 43 51 53 57 58 58 62 64 73 77 77 82 82 82 83 83 84 86 86 86 87 87 85 86 87 88 88 87 85
43 45 44 44 44 47 47 57 59 64 66 72 77 79 82 83 84 81 82 84 84 85 84 84 85 84 85 87 86 87 84 85
38 46 45 42 46 48 50 53 59 64 67 74 75 78 78 80 76 77 79 82 84 85 85 85 85 83 83 84 85 85 83 83
34 45 43 40 47 50 53 59 62 60 70 66 69 71 69 70 71 72 73 76 78 83 86 86 87 85 83 83 85 83 82 83
34 37 28 52 61 60 58 56 60 64 62 65 68 71 69 68 67 69 72 74 77 80 86 87 90 91 87 86 82 82 81 81
29 31 36 48 53 57 58 50 56 58 62 65 69 71 71 67 65 66 69 72 76 80 85 88 88 88 85 84 83 82 81 81
31 28 29 42 51 57 58 48 54 58 58 63 69 65 64 62 63 67 71 77 78 82 89 89 87 89 85 83 83 81 82 82
31 29 32 46 53 58 47 46 53 54 55 60 57 58 59 63 64 66 68 74 81 87 86 86 87 87 83 83 82 84 85 84
32 29 27 46 52 47 50 52 53 53 54 58 59 60 60 61 61 63 66 71 79 81 83 85 85 84 82 81 84 84 84 83
34 33 39 47 49 54 54 51 51 51 55 59 60 59 60 59 60 62 64 69 74 78 77 81 83 83 81 79 82 82 82 82
36 39 42 47 51 55 53 51 53 54 55 56 57 60 60 60 60 62 62 65 72 74 74 74 77 79 78 81 82 81 81 81
37 41 44 47 49 50 51 53 53 53 54 55 55 57 60 60 60 61 61 63 67 69 71 72 75 75 77 79 82 82 81 81
35 41 42 44 49 52 50 50 52 52 52 53 55 57 61 62 63 63 62 62 65 67 69 71 73 73 74 74 77 80 82 83
40 44 46 48 50 51 49 51 52 52 53 51 55 58 61 63 63 63 65 65 64 65 67 71 72 71 71 73 74 76 76 72

GFSFLT2_sfc_temp_048.txt.gz
Temp
67 68 70 70 66 77 69 73 68 74 76 84 89 88 90 91 94 95 94 94 93 93 92 91 89 89 88 87 85 86 87 86
64 68 71 68 79 65 67 54 54 67 70 73 79 83 88 90 92 95 95 94 95 94 93 93 93 92 90 89 86 87 88 87
61 64 67 67 64 67 72 68 59 59 68 84 83 85 85 90 94 96 96 95 95 95 96 95 95 93 91 90 88 87 88 88
56 68 69 66 63 68 61 59 66 66 70 90 87 89 91 91 95 98 98 97 97 97 96 96 94 94 93 92 91 90 90 88
53 62 65 60 66 66 66 67 61 61 66 86 87 86 90 91 94 95 97 98 97 98 97 96 95 94 95 94 94 94 91 90
47 54 57 52 57 63 64 58 61 64 67 79 82 84 87 89 91 95 96 95 97 97 97 96 95 94 94 95 97 96 94 92
53 54 54 54 55 57 55 58 55 64 68 75 81 84 88 91 91 89 91 93 94 95 95 93 93 94 93 95 96 97 94 92
47 53 53 51 55 57 57 57 58 61 62 76 86 87 86 88 90 88 89 91 93 94 95 93 92 92 92 93 94 94 92 92
41 51 52 46 53 55 59 61 61 56 67 79 81 82 85 87 88 86 86 87 89 91 94 95 94 93 92 92 94 91 90 90
42 47 32 52 62 62 60 63 66 66 70 76 80 82 81 80 78 79 80 82 85 90 92 94 99 99 94 94 90 89 88 88
34 37 45 50 56 59 59 59 64 68 72 77 82 82 77 77 75 75 77 79 82 86 89 91 94 97 95 92 90 89 88 87
38 30 28 46 43 47 58 49 66 68 73 77 79 73 79 72 73 74 76 79 80 85 89 90 90 97 96 91 89 87 88 88
35 33 39 49 46 46 36 50 63 62 60 67 75 67 64 66 67 70 70 73 82 86 86 89 91 96 93 91 89 90 90 89
34 30 28 46 40 38 50 55 52 54 59 61 61 62 62 63 61 63 64 73 87 89 90 93 93 94 90 87 89 89 90 89
34 36 43 41 40 48 52 49 50 54 61 62 62 60 60 61 60 62 63 67 79 88 89 91 91 92 87 87 86 88 88 87
34 39 38 44 47 49 50 49 52 56 56 59 59 62 61 61 61 61 61 63 68 74 76 82 88 89 88 88 87 87 86 86
35 37 41 46 46 48 50 51 52 55 55 54 60 63 62 60 60 60 59 62 63 66 70 72 75 77 80 86 86 86 86 87
34 39 40 41 46 50 50 49 51 52 53 57 56 57 60 60 61 61 60 60 61 63 67 71 73 75 78 81 83 84 84 87
39 44 45 47 48 50 51 50 52 53 55 53 55 58 60 62 63 62 62 61 62 62 64 68 69 70 73 79 82 82 76 84

GFSFLT2_sfc_temp_051.txt.gz
Temp
76 79 79 75 70 80 73 77 72 78 81 89 93 93 95 94 96 92 98 99 97 96 96 94 93 92 91 89 86 87 87 86
75 75 77 73 80 69 70 58 58 72 75 77 83 87 92 93 95 95 98 99 100 98 97 96 96 95 94 92 88 88 89 88
71 66 68 71 68 71 73 72 62 62 73 90 87 89 90 94 96 98 100 100 101 100 99 98 98 96 94 93 91 89 89 89
65 75 79 76 72 73 64 61 71 71 73 94 94 94 94 94 97 100 100 102 102 102 100 99 97 97 96 94 93 91 91 89
57 66 71 67 71 72 74 73 65 65 70 92 93 91 92 93 96 97 99 101 102 102 100 99 98 97 97 96 96 95 91 91
54 58 63 62 66 70 70 63 65 68 73 83 86 86 89 92 96 97 98 100 101 101 100 99 99 97 96 97 98 97 95 93
58 60 61 60 62 64 63 65 62 69 69 78 83 83 89 94 94 94 96 98 100 101 100 98 98 97 96 98 98 98 95 95
50 59 60 57 61 62 62 64 65 66 66 80 81 83 84 87 92 92 93 95 98 99 100 99 98 97 96 96 98 97 94 93
44 56 57 50 58 60 62 66 65 60 68 75 75 77 80 87 91 91 94 94 95 97 99 100 101 98 98 95 97 95 94 93
42 49 36 57 68 68 64 66 69 69 71 74 75 79 81 87 88 87 90 91 92 96 98 100 104 104 100 99 93 94 92 92
35 40 49 56 62 62 51 51 61 60 67 75 78 79 77 86 86 84 85 87 89 92 94 96 99 102 100 98 95 93 92 91
42 34 32 53 63 59 55 45 64 66 66 72 77 69 77 81 84 84 85 86 86 89 91 93 93 99 100 97 95 91 93 92
39 36 44 58 57 56 37 49 61 60 71 75 74 78 83 76 76 77 80 80 83 85 86 88 92 95 94 97 94 95 94 94
37 34 31 52 51 40 52 47 46 55 77 76 78 74 70 69 70 71 72 75 79 84 90 91 92 93 91 91 94 94 92 91
39 40 48 49 45 49 46 44 46 56 70 74 70 68 67 64 66 67 65 70 73 80 90 94 93 92 90 89 93 91 90 88
35 42 44 45 44 46 47 46 50 53 60 68 65 64 61 62 61 62 63 62 65 71 82 81 89 93 92 93 92 90 88 87
35 39 39 43 46 46 49 51 51 53 56 58 62 62 60 60 59 59 59 59 62 63 67 70 76 79 89 91 91 89 88 89
34 38 40 41 45 48 49 48 51 52 53 54 57 58 61 58 58 57 57 59 58 62 63 63 65 66 69 72 85 87 87 86
38 43 42 44 45 48 49 49 51 52 52 53 57 60 59 58 58 58 58 59 59 60 61 63 63 64 68 69 76 81 83 89

GFSFLT2_sfc_temp_054.txt.gz
Temp
83 82 79 73 70 79 69 73 67 73 79 86 91 92 93 81 84 74 80 91 94 93 92 89 90 88 87 83 82 82 83 82
78 80 80 76 80 67 69 55 54 67 71 75 82 87 89 81 79 77 75 72 87 95 93 92 92 91 90 87 83 83 83 83
75 70 68 70 67 69 71 68 60 59 67 87 86 88 89 82 79 85 81 75 74 71 96 95 94 93 91 89 85 84 84 83
63 77 78 74 70 72 62 59 66 66 69 91 89 94 94 94 96 88 85 77 73 70 74 95 93 93 92 91 89 86 85 83
56 67 74 69 72 73 73 72 62 61 66 90 91 91 95 94 95 96 83 76 74 69 74 96 95 93 94 92 92 91 87 86
51 59 62 61 67 70 69 63 64 67 70 80 79 77 79 86 89 95 95 81 76 80 79 96 94 91 91 93 94 93 89 88
57 59 61 61 61 64 64 66 62 68 70 77 70 72 76 82 85 86 93 95 95 95 79 88 91 91 91 94 92 93 89 88
50 57 59 57 62 63 64 67 68 69 67 79 80 80 79 81 82 81 82 91 90 87 95 92 92 91 91 91 92 92 88 87
42 53 54 49 58 61 63 66 65 60 68 76 75 76 77 77 77 79 80 78 94 92 89 81 94 93 91 91 93 90 88 87
40 46 32 53 65 66 63 66 68 68 70 73 73 76 79 81 79 79 79 76 87 94 95 89 81 79 96 94 89 89 87 87
35 37 46 53 60 61 56 59 69 64 67 70 73 74 71 80 83 82 79 82 88 91 91 88 89 90 94 94 91 90 88 87
40 34 32 51 63 62 61 48 66 66 66 67 69 61 66 76 81 80 74 86 85 88 89 89 88 92 91 94 91 88 89 88
37 37 44 59 64 62 41 48 61 60 60 60 57 62 67 71 77 81 74 79 81 81 82 84 86 88 86 88 91 91 91 92
38 35 32 54 55 47 53 56 56 56 57 57 59 62 64 68 77 76 75 75 78 78 79 84 87 86 83 84 88 90 90 89
35 37 48 52 49 52 52 51 53 52 55 55 55 59 57 72 71 70 67 68 71 74 76 84 81 85 83 84 86 89 88 86
35 45 45 46 47 47 49 48 49 50 53 52 53 55 65 65 62 62 63 62 64 67 70 70 72 75 85 86 88 88 86 85
35 39 40 44 44 45 46 48 48 51 53 52 52 60 61 59 58 59 60 61 62 63 63 64 68 71 75 76 84 87 86 86
33 39 37 39 43 44 43 47 49 50 51 53 53 57 59 58 57 58 59 60 59 60 60 60 62 67 71 72 74 87 86 87
40 44 43 43 44 45 45 47 50 50 50 49 52 56 59 57 58 58 60 59 57 57 58 59 59 63 65 68 72 77 85 85

GFSFLT2_sfc_temp_057.txt.gz
Temp
74 77 71 61 55 64 52 59 49 57 63 73 78 75 74 75 77 72 74 72 73 85 86 86 83 82 81 78 79 79 78 79
71 75 72 64 66 51 53 41 40 52 56 58 68 76 74 73 73 73 73 72 72 72 80 83 87 84 83 80 79 79 80 79
62 58 57 59 53 53 53 49 43 44 53 69 70 73 74 74 75 75 74 72 69 72 72 76 87 87 84 81 79 79 80 80
51 64 68 64 54 53 45 46 49 48 54 76 74 73 78 79 80 75 74 72 72 73 72 73 81 88 86 83 80 80 80 81
44 52 59 56 59 54 54 51 49 46 53 69 72 72 74 73 77 78 75 71 71 73 75 74 78 85 88 87 82 82 82 80
36 43 51 49 55 59 50 43 46 51 56 66 67 68 73 74 75 73 74 71 72 73 73 78 77 73 88 88 87 83 82 81
49 53 54 53 53 56 52 52 43 54 57 57 64 67 71 75 76 75 74 68 70 70 73 70 73 71 80 89 88 87 83 81
44 52 52 50 54 55 56 58 57 58 58 63 67 69 69 70 73 73 73 74 74 75 79 71 75 78 76 83 88 89 84 82
34 46 47 41 50 53 55 59 57 51 57 64 61 65 65 66 69 71 73 73 72 70 77 72 72 79 77 76 90 88 86 83
32 37 26 45 56 58 55 58 60 60 62 61 60 64 66 66 67 70 68 72 70 68 72 74 71 68 69 69 73 86 85 84
27 30 40 47 52 52 48 47 58 56 59 61 60 61 61 69 65 66 65 68 68 71 73 73 69 67 67 68 68 68 84 84
34 27 26 43 56 62 56 40 58 55 53 53 54 45 52 61 63 65 64 64 67 72 73 77 72 68 67 66 66 72 76 84
34 32 36 45 49 57 38 37 49 52 51 50 46 48 54 58 61 64 65 66 71 71 71 74 78 73 70 70 69 80 85 87
33 32 28 47 46 37 42 45 46 47 49 50 51 52 54 55 58 61 62 66 70 67 68 71 72 71 71 72 77 80 81 82
33 34 45 47 43 46 45 43 43 45 48 50 48 50 52 52 56 57 64 64 64 64 64 67 68 68 69 70 75 78 79 80
34 42 42 42 44 46 45 44 45 45 47 48 46 49 49 51 53 60 60 59 61 60 64 65 64 65 68 71 72 73 77 78
36 40 41 43 42 43 44 44 45 47 47 47 47 48 50 52 56 57 59 59 60 59 60 60 62 63 66 66 68 69 74 79
33 41 39 39 43 44 41 42 45 44 47 50 51 50 51 52 56 57 57 58 57 58 59 59 59 60 62 63 65 67 70 78
40 45 44 45 45 45 43 43 45 45 46 48 49 49 48 54 56 57 57 57 56 56 56 57 57 57 59 60 63 64 68 76

GFSFLT2_sfc_temp_060.txt.gz
Temp
68 66 64 57 51 57 47 41 45 49 56 66 72 70 70 71 71 70 73 74 77 84 84 79 79 79 78 76 76 77 77 77
65 66 66 57 62 51 45 38 37 46 49 53 59 63 68 68 69 73 73 74 76 81 84 80 80 81 80 79 78 77 78 78
56 50 49 52 50 50 49 45 39 39 47 59 62 66 66 70 72 75 73 72 72 77 78 78 77 80 79 79 78 77 78 78
46 56 60 56 49 45 42 41 42 43 47 65 68 69 70 69 73 72 72 73 74 75 74 77 78 80 80 79 79 79 79 78
42 45 51 48 51 46 43 41 41 41 46 66 69 68 70 70 69 73 70 72 70 70 68 75 77 81 81 81 79 80 79 79
32 37 45 44 50 52 42 36 38 42 47 55 62 64 67 68 70 67 66 68 66 71 72 73 73 73 78 82 80 81 80 79
39 48 49 48 49 51 44 42 39 46 47 52 55 61 64 68 69 68 66 68 68 69 75 72 70 72 74 77 83 81 79 79
38 47 47 45 49 50 51 51 49 50 48 55 56 61 62 67 68 65 65 67 74 71 73 72 74 75 73 72 75 81 79 79
27 41 42 37 44 48 49 50 48 43 49 54 55 58 60 58 62 63 63 65 64 66 69 69 70 71 72 70 71 73 80 80
28 33 23 40 50 52 50 52 52 51 53 53 52 54 57 59 58 60 63 61 62 65 65 70 69 68 68 69 69 70 69 79
29 25 35 44 45 44 42 43 48 46 49 52 52 55 55 57 59 60 61 62 63 64 64 69 69 70 68 70 69 68 69 68
32 26 23 35 44 50 48 35 44 45 44 44 47 40 45 53 58 59 61 63 64 63 67 71 69 68 67 68 70 68 69 71
32 30 34 42 45 49 32 34 43 43 43 42 40 43 49 53 54 58 59 62 64 64 66 69 70 67 66 67 66 68 70 70
30 29 26 45 45 36 38 41 44 43 43 41 43 46 49 50 51 54 57 60 65 62 61 66 69 68 69 68 71 71 71 70
33 30 40 40 39 42 43 41 43 43 43 44 44 45 47 47 49 51 54 57 62 61 59 65 66 65 65 69 71 71 71 72
34 38 38 43 45 45 45 43 44 44 44 47 44 46 46 47 48 49 52 54 58 58 61 61 62 64 62 67 68 67 67 69
36 38 40 42 43 45 44 45 44 46 46 45 47 45 45 46 47 50 52 56 56 58 56 58 59 61 60 64 64 64 65 67
31 38 38 40 43 47 44 43 44 43 44 46 47 47 49 48 48 49 51 56 55 55 57 57 57 58 58 58 60 60 61 65
38 42 42 44 44 47 44 45 45 44 45 44 45 47 48 47 49 52 54 57 55 53 53 54 54 56 57 58 58 57 58 62

GFSFLT2_sfc_temp_063.txt.gz
Temp
64 62 59 54 49 53 42 37 43 46 53 61 66 65 66 69 70 70 73 74 76 79 78 78 78 77 76 75 75 75 75 75
60 62 61 53 57 46 43 37 36 43 45 48 56 60 64 65 68 70 72 74 74 79 79 79 79 79 78 77 76 76 76 77
52 48 47 47 43 41 43 41 37 37 42 58 56 59 61 63 68 72 71 71 72 76 80 79 79 79 78 77 77 76 77 77
41 51 57 53 42 39 37 38 39 41 42 59 60 62 65 65 65 70 70 71 71 70 69 70 71 72 74 77 77 77 77 77
36 43 48 45 47 41 38 35 34 37 41 61 59 61 63 65 65 66 67 66 66 66 66 68 70 74 74 75 77 79 78 77
30 34 41 41 46 47 39 34 35 39 43 51 55 57 60 61 64 65 65 64 63 63 65 68 70 71 72 77 79 78 78 77
37 43 45 44 45 47 41 39 36 41 43 50 52 54 56 60 62 62 61 62 61 62 64 68 69 68 71 74 79 78 78 77
36 42 43 42 46 48 48 48 47 47 43 52 54 56 55 55 59 58 60 61 61 63 61 67 68 69 69 71 72 79 76 76
27 37 40 34 42 44 45 47 46 40 43 48 48 51 50 50 53 55 57 59 59 60 60 59 65 68 68 67 69 74 77 75
26 31 21 37 43 47 47 45 44 45 46 46 47 50 51 51 51 53 56 56 59 63 61 59 63 66 68 69 68 70 73 77
24 21 33 40 40 39 36 37 42 40 43 45 47 50 49 52 53 53 55 57 59 63 61 59 64 68 68 67 68 68 69 71
29 23 23 34 43 48 44 32 42 42 41 41 43 37 45 49 51 52 56 57 59 61 62 65 66 67 66 66 68 68 69 70
32 31 33 40 43 47 31 32 40 43 41 40 39 45 45 48 48 52 54 56 59 61 63 64 68 65 66 66 65 68 69 68
29 26 21 42 42 33 36 39 44 44 44 42 44 45 47 47 47 49 51 54 57 58 59 65 65 63 64 64 67 70 71 68
29 28 37 39 38 45 45 43 43 43 45 44 43 44 48 47 47 48 49 51 54 55 57 63 62 64 62 63 64 66 65 66
30 35 37 39 41 42 46 45 45 45 45 45 43 45 46 47 46 48 50 50 52 52 55 59 64 65 65 62 63 62 62 64
35 36 38 41 41 43 44 47 45 47 46 45 45 44 45 47 49 50 51 52 53 51 53 57 62 62 64 62 59 58 60 63
30 36 36 37 42 45 43 45 46 44 44 46 45 44 45 45 48 47 49 50 50 51 52 56 57 59 60 57 56 56 57 62
37 39 40 42 44 45 43 45 46 45 45 43 45 44 45 44 47 48 48 48 48 50 54 56 54 54 55 54 54 53 54 57

GFSFLT2_sfc_temp_066.txt.gz
Temp
61 60 56 51 46 49 42 36 40 44 50 59 64 64 65 65 67 69 71 73 74 77 76 75 75 74 75 73 74 73 74 73
57 59 57 51 51 44 42 36 35 42 42 45 53 57 61 61 63 66 70 72 73 76 76 77 77 76 76 76 75 75 75 75
49 45 42 45 41 40 42 39 38 35 40 55 53 56 57 61 63 64 70 70 71 71 75 76 78 77 76 76 75 75 75 75
39 49 52 48 41 37 39 38 36 38 41 56 55 57 60 60 63 63 64 66 69 70 69 71 72 73 75 77 76 77 76 75
34 42 46 43 44 38 36 34 33 36 41 58 56 57 58 60 63 61 62 63 64 66 67 68 70 71 72 73 77 78 76 77
33 35 39 40 44 44 37 33 34 37 41 49 50 51 54 57 61 61 59 60 60 60 63 67 68 69 70 72 75 77 77 76
36 43 43 42 43 45 40 40 37 41 42 47 47 49 50 54 57 58 58 60 60 59 59 60 64 69 69 71 73 76 76 76
33 40 41 41 44 46 46 46 44 44 44 46 49 51 50 50 52 53 54 57 59 61 61 60 60 63 68 69 69 75 74 75
26 35 37 32 38 42 44 44 41 39 41 45 44 46 47 48 50 51 52 54 56 59 58 58 59 61 64 68 69 69 73 74
25 28 23 35 42 44 44 42 41 42 42 43 43 46 48 51 48 48 50 52 54 57 60 59 59 61 66 69 69 69 70 74
23 19 31 36 39 38 36 38 41 39 41 43 45 46 48 50 50 49 49 51 54 57 59 61 61 63 66 68 68 69 70 71
24 24 24 33 42 46 43 32 40 41 41 41 42 34 44 48 49 49 50 51 52 55 57 60 61 63 64 65 67 67 69 70
28 27 31 39 43 46 29 32 39 42 43 43 39 43 46 48 48 50 50 52 53 53 54 57 61 60 61 63 64 68 70 70
30 26 20 42 42 36 37 38 41 42 44 43 45 46 47 47 47 48 49 51 53 52 52 55 58 57 59 61 66 68 68 68
27 26 37 40 39 42 42 41 44 44 46 45 44 45 46 46 47 48 51 52 52 51 51 53 55 57 58 62 66 65 66 65
29 34 36 39 41 43 43 42 45 48 46 45 43 45 45 46 47 48 50 50 51 51 50 51 55 58 59 64 65 64 62 63
36 36 37 39 41 43 43 44 44 48 46 43 44 44 45 45 46 47 49 51 52 52 52 52 54 55 58 62 63 61 61 62
29 36 37 38 43 45 43 43 45 45 43 46 46 44 44 44 45 46 46 49 48 49 49 51 53 54 56 60 61 59 58 61
38 39 40 43 44 45 44 45 46 46 45 43 45 45 45 43 45 46 46 47 47 48 49 49 51 54 56 60 58 56 55 57

GFSFLT2_sfc_temp_069.txt.gz
Temp
66 68 68 63 61 70 60 57 60 63 64 69 72 70 69 71 74 76 80 82 82 84 84 84 83 82 82 80 80 80 81 81
63 66 67 66 66 61 62 50 51 55 56 58 60 61 64 64 68 75 78 80 82 84 84 84 85 85 84 83 81 81 82 82
61 56 54 63 61 59 63 59 56 52 54 63 60 60 58 60 63 69 75 78 81 82 83 84 86 85 85 84 82 82 82 82
52 59 59 59 54 55 59 53 55 61 53 65 63 63 60 57 61 64 67 70 73 78 80 81 81 84 85 85 83 82 83 81
50 57 59 55 57 55 55 57 50 56 53 64 64 61 62 58 57 59 62 64 66 66 65 72 79 82 84 84 86 83 80 80
52 50 54 51 54 56 57 57 52 54 54 58 58 58 60 61 60 59 59 59 61 62 63 62 65 71 76 78 85 86 84 80
50 52 53 52 52 54 54 54 54 54 55 55 57 57 59 61 63 61 57 58 58 59 60 60 59 65 71 74 75 81 83 84
45 50 51 49 51 52 53 54 55 56 53 55 57 59 59 59 59 59 60 59 57 58 59 60 59 59 66 71 72 73 76 81
42 46 47 45 48 50 52 52 54 53 50 53 54 54 55 57 58 56 57 59 59 59 58 59 60 60 63 68 71 72 72 76
43 44 35 46 51 50 50 48 51 52 50 50 51 54 57 60 56 56 56 57 59 62 60 59 60 59 62 66 68 70 73 74
38 39 42 44 47 47 47 44 46 47 49 51 52 56 57 57 58 57 57 58 60 62 62 62 62 61 58 61 65 68 71 74
39 36 36 45 48 52 51 45 46 47 47 49 51 50 58 57 57 57 58 59 59 61 62 63 63 62 60 59 62 65 67 72
41 38 43 49 50 52 39 43 47 48 48 48 46 49 53 56 55 57 57 57 59 60 61 62 63 63 58 57 58 63 70 72
36 33 32 51 48 43 47 48 49 49 49 48 50 52 53 54 54 55 55 56 59 59 60 62 62 62 60 58 59 63 65 70
40 41 48 51 51 53 52 49 50 50 51 51 51 51 52 52 53 54 55 56 58 59 59 60 61 61 59 61 60 60 64 69
38 47 47 50 51 52 53 52 52 53 53 54 50 51 51 52 50 51 51 51 54 55 56 57 59 60 60 61 62 59 61 66
41 47 47 49 51 53 52 53 52 54 54 53 50 51 52 51 49 49 48 49 50 52 54 55 58 58 60 60 61 61 59 64
40 50 51 51 52 53 52 52 53 53 53 54 53 52 52 50 49 48 48 49 49 50 51 53 56 57 58 60 59 60 59 61
51 53 53 54 54 55 53 54 55 54 55 53 55 54 53 52 52 51 48 49 48 48 50 50 51 53 57 58 57 57 58 60

GFSFLT2_sfc_temp_072.txt.gz
Temp
74 77 78 73 69 82 71 73 71 71 70 76 77 76 75 75 83 86 89 90 89 92 92 92 91 90 89 88 86 86 88 86
70 76 76 75 81 68 71 59 58 68 67 65 67 68 71 67 66 81 86 88 91 89 92 93 94 93 92 91 88 88 89 88
71 68 69 71 70 72 76 72 65 62 64 70 67 65 65 66 64 66 69 73 74 80 89 92 94 93 92 92 90 89 90 89
64 67 69 70 69 72 66 63 70 70 60 72 71 66 61 61 63 64 66 67 66 66 64 74 88 92 93 93 93 92 91 89
59 65 67 67 68 69 72 73 66 65 59 72 71 69 60 59 60 62 63 63 63 63 59 60 68 70 85 92 95 94 89 89
57 60 68 61 63 67 70 67 68 69 60 64 67 67 68 61 60 61 62 63 63 59 58 59 62 64 70 79 87 92 93 90
59 61 63 63 62 63 65 66 65 66 64 64 66 66 68 70 69 61 60 61 62 62 60 59 58 59 65 71 75 81 82 89
56 59 60 59 60 61 62 64 66 68 61 68 67 68 67 68 67 66 65 62 63 65 63 62 62 59 61 65 70 72 77 81
55 57 57 54 61 61 62 64 65 63 62 64 64 63 63 66 67 65 65 66 67 63 63 64 65 68 64 63 70 70 71 76
60 54 44 55 61 61 62 59 63 61 60 60 61 63 66 68 65 64 65 65 67 70 68 65 66 65 68 69 68 69 68 71
49 51 53 54 56 58 57 54 58 59 59 61 63 66 65 66 66 65 66 67 68 70 70 70 71 67 64 62 62 64 65 67
50 44 43 56 57 61 62 54 58 58 58 59 63 62 61 64 65 66 67 67 67 68 69 71 71 72 70 70 63 61 62 67
50 45 53 58 58 61 47 51 58 59 59 59 59 60 61 64 64 65 65 65 66 67 67 69 70 70 68 69 70 67 65 65
49 43 37 61 56 51 56 59 59 58 59 58 59 59 60 62 61 62 62 63 65 64 65 68 69 68 66 65 68 68 66 61
49 50 56 61 59 60 61 59 58 59 60 60 59 59 60 60 61 61 60 60 62 61 60 63 66 67 64 65 66 66 66 67
47 57 57 59 61 61 61 61 61 61 61 61 59 60 59 61 61 60 60 59 60 57 57 58 62 63 64 65 66 65 64 66
50 56 57 59 61 61 60 61 60 61 60 59 59 59 60 60 59 60 60 59 58 56 54 56 59 59 61 63 64 64 65 66
46 59 57 59 61 62 59 59 60 59 59 61 60 59 60 60 60 58 58 56 54 57 54 54 56 57 60 61 59 59 62 66
60 63 63 62 62 63 61 61 62 61 61 60 61 62 61 57 57 58 56 55 55 53 51 54 54 53 56 59 56 56 56 59

GFSFLT2_sfc_temp_075.txt.gz
Temp
82 86 85 78 73 86 78 81 75 76 74 80 82 81 78 78 88 91 89 84 89 91 91 86 87 93 93 91 88 88 89 88
79 82 84 80 85 73 76 63 63 72 69 71 74 74 74 71 75 76 72 68 67 75 86 89 90 93 95 94 89 90 91 90
76 73 74 76 75 78 81 77 68 66 66 77 72 72 70 64 69 71 68 69 70 66 68 71 74 89 91 95 92 91 91 91
70 78 79 79 78 79 70 67 75 73 61 78 72 71 68 62 64 68 64 61 65 65 65 64 67 69 71 91 95 94 93 91
64 71 76 73 77 78 80 80 70 69 62 77 70 66 65 62 62 63 66 66 61 64 62 58 64 69 71 74 83 96 94 95
59 65 74 68 72 75 76 70 71 72 64 69 70 64 61 62 63 65 64 62 63 59 61 61 60 61 68 71 80 79 79 95
66 69 73 72 71 71 70 74 70 66 66 69 71 72 68 66 64 63 63 64 64 64 61 59 61 60 61 68 71 74 75 79
60 65 67 65 68 69 71 72 73 71 66 74 74 74 72 72 70 64 64 66 66 66 65 65 64 63 63 65 68 70 72 76
57 63 60 56 65 68 71 73 73 68 68 72 70 70 71 72 70 69 70 68 69 70 70 68 70 68 68 65 67 68 68 71
60 62 46 61 68 71 69 70 71 69 70 72 70 71 73 73 70 69 70 70 72 74 71 68 71 71 73 74 71 69 67 67
54 57 61 61 62 62 62 59 67 67 68 69 71 72 68 71 71 70 71 72 73 74 74 74 74 72 70 73 71 70 70 67
57 50 49 60 67 70 70 56 66 69 67 67 70 65 65 68 70 70 71 72 71 72 74 75 74 76 74 73 70 71 67 69
55 52 59 65 66 68 52 56 66 68 67 67 68 65 66 69 68 69 69 69 70 70 70 71 73 73 71 71 72 73 73 73
55 51 44 67 64 57 61 66 67 66 66 64 65 66 66 66 66 67 66 67 68 67 67 68 69 69 68 68 71 71 70 70
55 53 63 66 65 67 69 65 65 66 67 66 65 65 65 65 65 66 66 66 67 66 64 66 66 66 64 66 68 68 68 68
54 62 62 65 67 67 67 67 67 68 67 67 65 66 65 66 65 65 66 65 66 64 63 62 64 65 64 65 66 65 64 65
57 62 63 65 67 67 66 67 66 67 66 65 65 65 65 66 65 64 64 65 63 61 61 61 63 62 64 65 64 63 64 64
50 64 63 63 68 69 65 64 66 65 64 65 65 63 64 65 64 62 63 63 61 60 59 61 61 61 62 62 61 60 61 64
63 69 68 69 68 69 66 66 67 66 66 64 66 66 65 66 64 62 65 62 60 57 59 59 59 59 60 59 58 57 55 59

GFSFLT2_sfc_temp_078.txt.gz
Temp
85 86 85 78 73 83 75 77 71 73 73 79 80 79 81 79 77 72 70 68 72 86 88 79 86 85 86 83 83 84 85 84
84 87 86 77 84 71 74 59 57 66 66 67 72 72 74 73 70 68 65 65 65 69 76 76 86 89 90 86 84 85 86 86
79 75 74 76 71 75 77 74 64 57 58 78 72 73 69 69 67 63 62 61 62 63 66 70 74 76 71 87 86 86 87 86
71 81 84 82 77 77 68 65 72 56 53 75 72 70 67 66 67 64 59 60 61 60 60 61 66 70 68 73 73 88 88 86
64 74 78 74 77 78 79 77 68 56 60 73 69 67 65 65 66 65 61 59 61 61 60 59 58 62 67 68 68 71 78 89
50 60 72 68 73 77 76 68 70 61 60 64 64 63 64 64 65 65 65 63 59 60 61 62 58 60 62 67 66 68 71 72
68 70 71 73 73 75 71 72 65 62 63 65 65 65 65 66 66 65 65 65 66 63 63 63 63 63 59 60 66 68 69 71
62 70 68 67 73 73 74 74 73 68 65 74 71 69 67 67 67 66 66 67 67 68 68 66 65 65 65 62 61 66 67 68
55 66 65 58 67 69 71 75 65 58 65 72 70 70 70 70 69 68 68 70 70 69 69 70 71 70 67 65 66 62 63 67
56 59 46 65 76 74 70 73 73 70 69 72 71 72 73 73 70 69 70 70 71 73 71 72 73 72 72 73 70 68 69 68
52 44 56 63 65 66 66 65 73 71 72 72 73 71 67 71 72 70 71 72 72 73 74 74 73 74 72 72 72 72 70 70
56 50 47 59 68 73 72 57 70 71 70 70 71 61 64 70 72 71 72 71 70 72 74 73 72 74 72 72 72 71 70 71
54 52 56 65 68 71 52 56 70 72 71 70 66 65 67 70 69 70 69 69 69 69 68 68 69 69 67 69 69 70 70 70
55 50 45 69 66 58 62 68 68 68 67 66 66 67 68 68 67 68 67 68 69 67 66 67 67 66 64 64 67 67 67 67
56 52 63 67 66 69 70 66 67 67 68 68 66 65 67 66 67 66 67 66 68 66 65 65 65 64 62 63 64 64 64 64
56 62 63 65 69 70 70 69 69 70 69 69 67 67 66 66 66 66 65 65 65 63 62 62 64 64 63 63 64 63 61 62
58 62 65 67 68 68 68 70 69 70 70 68 68 66 66 65 65 64 64 64 63 61 61 60 62 61 63 63 62 60 60 61
51 64 63 64 69 70 67 66 68 67 66 68 67 65 66 65 64 63 63 64 61 61 60 60 60 60 61 61 59 57 56 59
59 63 64 69 71 72 68 68 68 68 67 66 67 67 66 65 65 63 63 63 61 60 60 59 58 58 59 59 58 56 54 55

GFSFLT2_sfc_temp_081.txt.gz
Temp
79 77 72 65 61 68 58 57 52 55 59 65 66 66 68 66 66 64 67 67 70 71 71 79 77 81 80 78 77 77 76 75
77 78 77 68 69 58 55 45 48 54 54 52 58 63 61 59 59 61 62 65 65 66 66 70 73 77 81 79 78 78 78 78
70 65 64 62 58 57 58 55 48 46 46 60 59 60 56 56 57 58 59 59 61 63 64 65 68 69 70 70 71 74 77 76
57 70 73 67 62 62 50 50 52 50 48 63 61 62 60 57 58 58 59 58 59 59 60 62 65 66 67 68 68 69 70 72
54 63 66 61 68 61 60 57 54 47 47 61 60 60 60 57 59 59 58 58 59 58 57 59 61 63 66 66 66 68 68 70
45 53 58 57 64 66 56 49 52 55 50 56 57 57 57 59 61 60 59 59 58 56 59 59 59 60 61 63 66 67 68 67
60 63 63 63 64 67 60 56 52 53 53 55 57 57 61 62 63 62 62 61 60 59 59 60 59 60 60 61 62 64 65 66
52 63 63 61 65 69 68 64 59 60 54 61 61 61 62 63 63 61 59 63 63 63 63 62 61 59 60 60 61 62 61 62
43 58 60 51 59 62 62 66 62 51 55 61 59 61 61 62 64 61 61 61 60 60 61 61 62 62 60 61 61 62 62 61
41 48 38 56 67 67 64 67 65 62 61 64 64 63 63 63 61 61 62 62 61 61 61 62 63 64 65 68 66 62 63 63
39 37 48 57 63 60 59 58 66 64 65 66 65 62 58 64 63 61 61 61 62 63 63 61 62 63 63 64 64 64 65 65
45 40 36 50 62 68 65 49 65 63 64 63 63 49 51 61 63 62 61 60 60 61 61 60 59 61 60 61 61 61 63 64
42 40 48 57 64 67 48 48 60 64 62 61 52 53 57 61 60 60 59 60 60 59 57 57 58 58 56 57 56 59 61 62
42 38 36 61 61 50 54 59 59 60 60 58 58 59 59 59 58 59 58 60 60 56 56 56 57 56 54 53 56 58 58 58
45 42 54 59 56 59 60 58 59 59 60 59 59 58 58 56 56 58 57 57 56 55 54 55 56 55 52 53 55 55 55 55
47 51 55 58 61 62 62 60 62 62 62 61 58 58 57 56 55 54 55 54 54 53 52 52 53 54 53 54 54 53 51 52
49 53 55 59 60 61 61 62 63 63 63 62 59 58 57 55 53 54 54 53 53 51 51 51 52 52 52 52 51 50 50 51
42 54 52 55 59 62 59 60 61 60 60 61 60 57 58 54 54 54 53 52 52 52 51 50 51 50 51 51 50 47 48 49
51 57 58 59 61 64 60 60 62 60 59 58 59 58 58 54 54 56 55 56 52 51 50 50 50 49 50 50 49 47 45 46

GFSFLT2_sfc_temp_084.txt.gz
Temp
72 73 71 59 54 61 54 49 51 50 53 60 62 59 61 61 62 63 66 67 69 69 69 73 74 76 78 74 74 73 72 72
72 71 69 64 65 53 49 42 41 47 47 48 54 53 56 56 58 60 60 62 65 66 67 69 71 70 73 76 74 75 73 73
62 57 61 60 54 54 53 49 45 41 45 59 54 54 52 53 57 57 58 60 60 63 67 68 68 69 69 69 70 69 69 70
53 65 67 63 56 54 52 51 47 44 47 61 56 55 54 54 56 57 58 59 59 60 63 65 66 67 68 68 68 68 69 70
50 57 60 58 59 51 51 48 47 45 45 56 56 56 56 54 57 57 58 58 58 59 59 61 63 65 66 67 68 68 68 68
43 51 53 53 60 59 51 45 48 45 47 50 53 53 55 55 58 58 58 58 58 57 58 59 60 61 64 65 67 68 67 68
60 59 58 57 59 61 51 54 51 48 48 50 52 54 55 56 59 58 58 59 59 58 59 58 59 60 61 62 63 65 66 66
51 61 58 56 60 61 62 61 54 51 46 55 56 58 57 58 60 60 60 61 61 62 61 60 60 59 61 60 61 62 62 62
39 53 58 48 54 58 58 62 55 48 50 56 55 58 60 61 62 61 62 63 63 62 62 62 63 63 61 60 62 62 61 61
38 45 38 54 63 63 58 59 57 55 56 58 58 59 59 61 60 59 59 62 62 64 63 63 62 63 63 63 62 62 63 63
37 34 45 56 60 58 54 51 59 57 58 60 60 59 54 60 60 58 56 57 57 58 57 57 58 58 60 60 60 61 62 62
37 34 34 47 61 65 65 46 58 60 58 58 59 48 51 58 59 57 58 57 56 56 57 57 55 57 57 55 55 55 57 60
37 35 44 53 59 64 44 45 58 61 61 60 50 53 54 57 56 57 57 56 56 55 53 53 54 54 51 51 51 54 56 57
36 32 33 56 57 49 50 52 54 56 54 53 55 56 56 56 54 56 55 55 55 52 52 52 53 52 50 50 52 53 53 53
40 38 49 52 54 54 58 55 53 54 57 58 57 56 56 53 54 53 54 52 53 51 50 50 51 51 48 49 50 51 49 49
43 47 51 54 56 58 58 58 58 58 58 58 55 55 55 52 51 52 51 51 51 50 48 48 49 50 48 49 49 48 46 47
43 48 51 55 56 58 59 60 60 60 60 58 56 54 53 52 51 51 50 50 50 48 47 47 47 47 48 48 47 45 45 45
39 48 47 49 53 56 57 58 58 58 57 56 55 53 54 52 52 50 49 48 48 47 47 46 47 46 47 47 46 43 42 43
49 51 53 56 60 59 56 56 58 57 56 55 54 53 53 51 50 52 50 49 48 47 47 46 46 46 46 46 45 44 41 43

GFSFLT2_sfc_temp_087.txt.gz
Temp
69 68 67 55 51 58 49 43 46 46 49 57 60 56 60 61 62 62 64 66 68 71 72 72 72 76 76 75 75 72 71 71
68 68 65 62 63 52 48 41 38 44 44 48 55 53 56 58 58 60 62 62 64 66 68 69 69 72 74 75 74 73 70 70
59 55 53 57 52 50 50 46 41 39 44 53 53 53 52 55 57 58 59 60 62 63 67 69 70 71 70 70 70 69 71 71
50 61 61 59 50 49 49 44 43 42 44 57 54 53 53 53 57 58 59 59 60 62 64 66 68 69 69 69 68 68 68 69
47 52 58 55 56 46 46 45 44 44 44 57 55 53 53 52 53 57 58 58 59 60 61 62 65 67 68 68 68 68 68 68
42 49 50 49 55 54 47 44 43 45 48 51 50 50 52 53 54 55 58 57 57 58 59 60 61 63 66 68 68 68 68 68
54 56 56 54 55 57 50 50 47 48 46 50 50 51 52 54 57 57 57 59 58 58 58 58 60 61 62 64 65 67 67 67
48 60 56 53 57 57 57 52 49 47 44 51 53 54 53 55 57 56 58 59 60 61 60 59 59 60 61 61 61 62 63 64
40 48 55 47 52 53 54 55 50 46 48 53 52 54 53 55 57 57 60 61 62 62 62 61 62 61 61 60 61 62 61 62
39 43 35 51 62 59 54 54 52 51 52 55 55 55 56 58 61 61 62 62 62 62 60 60 62 62 61 62 62 62 63 62
36 34 43 53 58 58 53 47 55 53 55 56 56 55 53 58 59 59 57 58 57 59 59 59 60 60 59 59 60 59 60 60
35 34 35 46 59 62 59 45 56 57 55 55 56 46 48 54 56 55 56 57 55 55 55 55 53 55 54 53 55 54 55 57
35 33 41 52 57 60 47 44 54 59 58 57 54 50 53 54 53 54 54 53 53 53 51 50 51 53 50 50 49 52 53 54
33 31 32 54 55 47 51 49 52 57 59 58 51 54 54 55 53 53 52 52 52 50 49 49 50 50 47 47 48 50 50 50
39 37 47 50 50 51 52 51 50 51 53 54 55 55 55 53 51 52 52 51 50 49 48 48 48 48 46 46 48 48 47 46
41 45 49 52 53 54 54 54 54 55 58 58 57 57 53 52 51 50 50 50 49 48 46 45 46 47 46 46 47 46 45 44
41 45 49 52 53 54 56 56 56 56 57 57 57 54 52 49 50 50 49 48 48 46 45 44 45 45 46 46 45 43 43 43
38 47 47 48 52 55 54 55 56 55 54 54 57 55 54 50 50 49 48 46 46 45 44 44 44 44 45 45 44 42 41 42
48 49 50 52 55 56 55 56 56 56 55 53 53 54 53 50 49 51 47 47 47 46 45 44 44 44 44 44 43 42 40 40

GFSFLT2_sfc_temp_090.txt.gz
Temp
66 64 65 53 50 55 46 41 44 45 50 56 60 59 61 61 62 63 66 68 69 69 72 70 71 75 75 73 73 72 73 72
63 64 62 58 60 50 45 40 37 44 46 48 54 55 58 58 60 61 63 64 66 67 70 70 71 71 74 74 72 71 72 72
56 52 52 55 50 47 48 45 40 39 45 53 54 57 56 57 59 60 61 62 63 64 68 69 70 71 71 71 71 70 70 72
47 56 58 53 48 47 46 42 41 42 46 55 54 54 56 57 58 59 60 60 62 63 65 68 69 70 70 69 69 69 69 70
46 50 55 53 52 45 44 44 42 45 47 54 53 52 53 54 57 58 58 59 60 62 63 64 67 68 68 69 68 68 68 68
41 44 48 48 52 52 45 43 43 46 47 51 50 50 51 52 54 58 58 58 58 59 61 62 63 65 67 68 68 68 68 68
52 54 53 51 52 53 47 46 46 49 49 49 50 50 51 53 57 57 57 58 58 58 59 60 61 63 64 65 66 68 68 68
47 53 54 51 54 54 54 51 48 47 48 51 52 52 52 53 55 56 58 59 60 60 60 59 60 61 62 63 63 65 64 65
41 47 54 48 51 51 52 52 49 45 48 51 50 52 52 53 55 55 56 58 60 60 61 60 60 61 60 61 63 63 62 62
40 40 34 49 59 57 53 53 52 49 50 52 52 53 55 57 56 56 58 59 59 59 60 60 60 59 60 61 61 61 61 60
37 33 42 51 54 54 51 50 53 50 52 53 55 55 53 58 58 57 59 59 59 59 59 60 59 60 58 57 58 59 58 59
34 34 34 45 55 60 58 44 54 54 53 54 55 45 49 55 56 57 58 58 57 57 59 58 57 59 57 55 55 54 55 56
35 33 41 49 55 57 45 45 54 58 56 55 53 52 53 54 53 55 55 54 54 53 52 52 53 54 51 51 51 52 54 54
32 32 33 53 54 47 51 51 55 57 56 55 52 52 54 54 52 53 52 52 53 51 50 50 51 52 49 49 50 51 51 51
38 37 46 48 49 52 51 52 54 54 55 53 52 53 53 52 52 53 53 51 51 50 48 49 50 50 48 48 50 49 48 48
41 45 48 51 53 54 54 53 53 55 55 55 52 52 51 51 51 51 52 50 51 49 48 47 49 49 49 49 49 48 47 47
41 45 48 53 54 54 55 55 55 55 56 56 54 53 52 52 51 52 51 50 51 49 48 47 48 47 48 48 48 46 46 46
38 48 47 49 52 55 54 54 54 54 53 55 55 53 54 53 52 51 50 49 48 48 48 47 47 47 47 47 47 46 46 46
49 49 50 52 55 56 55 55 56 54 53 52 53 54 53 52 51 51 50 49 49 48 48 47 46 46 47 46 46 45 44 45

GFSFLT2_sfc_temp_096.txt.gz
Temp
82 84 82 75 69 82 72 72 70 71 74 71 74 75 79 82 83 86 87 90 91 90 89 87 79 82 79 78 85 87 88 86
80 83 83 81 83 71 73 59 59 69 70 71 69 73 69 79 82 87 86 87 88 90 87 81 76 74 79 85 78 83 86 88
78 74 74 75 75 77 79 75 66 63 69 79 77 75 69 69 70 75 83 83 83 85 87 86 78 73 71 72 78 82 82 84
71 78 81 82 78 78 70 66 73 73 69 76 77 78 75 68 70 69 71 70 73 79 80 77 79 74 72 71 72 74 82 80
65 73 77 75 79 81 82 81 69 67 72 76 75 74 73 72 71 69 68 68 68 73 76 78 77 73 72 72 77 76 73 75
64 68 76 69 73 77 78 72 72 74 74 71 72 71 70 70 68 67 68 66 65 65 70 72 76 78 77 74 73 72 71 71
72 74 74 73 74 75 74 77 72 76 76 76 75 74 73 70 70 68 70 70 65 63 64 65 69 76 77 76 75 76 72 70
65 70 73 69 72 73 74 74 76 75 75 76 79 77 74 72 66 69 69 70 67 64 64 63 63 66 71 73 74 77 73 73
59 66 68 64 70 72 72 74 75 72 74 75 73 72 73 73 71 70 71 71 67 64 63 63 62 63 63 64 66 67 68 68
60 62 50 66 75 74 72 72 75 74 73 74 74 75 76 77 75 72 71 67 68 64 62 60 59 59 62 62 62 63 64 64
58 58 63 65 68 69 69 70 74 72 72 74 75 74 70 75 77 76 76 75 71 69 64 61 59 58 58 60 62 59 62 64
62 55 52 64 70 74 74 64 74 75 72 72 73 70 73 75 77 76 77 76 74 69 63 61 61 61 59 55 57 58 60 62
61 58 63 69 71 73 59 61 73 75 75 74 73 67 74 76 75 75 74 73 72 70 66 65 63 60 58 58 55 57 58 60
61 56 51 70 70 63 67 73 74 74 75 74 72 73 74 74 73 72 70 69 68 65 62 61 64 66 60 56 59 59 59 59
62 62 67 70 70 72 74 72 73 74 76 75 72 72 72 71 71 71 70 67 70 69 68 68 66 63 59 59 62 63 61 60
61 67 68 70 72 74 74 74 75 76 76 76 73 73 72 72 72 72 71 70 73 71 69 67 68 69 68 65 66 65 63 62
64 67 68 70 72 73 73 74 74 75 74 74 74 73 73 72 71 72 71 71 71 70 69 68 68 67 68 67 66 66 64 66
62 69 68 69 74 74 72 72 74 73 72 73 73 72 73 72 72 71 70 70 69 70 69 68 67 66 66 66 66 66 66 68
69 73 73 72 73 74 73 73 74 74 73 72 73 74 73 72 71 66 69 68 65 65 68 67 66 66 66 65 65 64 66 66

GFSFLT2_sfc_temp_099.txt.gz
Temp
86 88 87 79 74 85 71 75 61 69 72 78 84 83 83 83 88 85 89 85 89 92 93 86 90 91 91 87 85 89 90 88
84 87 88 84 88 74 77 60 55 65 70 71 72 76 83 84 86 88 88 92 88 88 90 84 79 83 82 83 81 85 90 90
81 77 77 79 78 80 81 77 66 62 69 80 77 81 79 86 88 90 90 90 90 88 90 90 86 83 74 78 80 81 86 87
75 85 87 86 81 81 72 68 76 73 58 85 83 83 83 78 79 81 84 88 89 91 83 82 79 74 76 72 73 75 77 82
68 80 83 79 82 84 84 83 72 70 68 83 82 78 79 77 76 77 75 78 80 82 83 81 77 81 81 77 73 73 74 77
64 69 79 73 78 83 83 74 75 75 70 77 80 78 76 73 71 70 72 72 73 75 77 78 80 79 79 77 76 74 74 71
75 76 79 79 78 79 77 80 75 78 76 80 80 79 79 75 73 71 71 71 66 68 68 74 77 79 80 80 77 77 78 79
71 74 78 76 79 80 80 81 81 79 77 84 85 83 79 76 75 74 74 72 70 65 66 65 68 77 79 79 79 80 79 78
58 74 73 67 75 77 79 83 82 76 74 84 81 80 79 77 76 75 75 73 71 68 67 65 63 66 69 72 77 77 75 74
62 61 56 68 79 81 77 79 82 80 80 81 82 83 83 83 80 77 75 73 73 70 65 62 60 61 63 63 66 69 69 68
52 47 60 69 73 74 74 73 80 78 79 81 83 82 78 83 83 79 77 77 75 72 66 61 58 57 59 60 59 60 64 65
65 51 52 55 75 79 78 67 80 80 78 79 79 74 75 81 82 81 78 75 73 69 65 62 59 59 57 56 58 56 56 60
64 61 52 69 77 79 62 60 78 81 80 79 77 75 79 82 79 80 76 74 71 69 63 62 63 62 58 58 55 58 60 61
64 51 54 76 75 67 71 77 78 79 80 79 77 79 79 79 77 77 75 74 75 72 71 66 65 62 57 57 62 59 59 60
66 62 71 76 74 77 80 76 77 79 81 81 78 78 78 77 76 76 75 74 75 72 69 68 69 72 59 59 60 61 60 58
66 71 72 75 77 78 79 77 79 81 82 81 78 79 77 77 76 75 75 74 75 73 70 68 66 65 65 68 68 64 62 63
68 71 73 74 76 77 77 78 78 79 80 80 79 78 78 76 76 76 74 75 75 72 72 71 72 71 70 66 65 64 65 66
67 74 71 73 77 78 76 76 77 77 76 77 79 77 77 77 76 76 75 75 74 74 73 72 71 70 71 71 70 70 70 71
73 78 76 78 78 79 77 77 78 78 77 75 77 79 77 75 75 70 75 74 73 73 74 72 71 70 70 70 69 68 69 72

GFSFLT2_sfc_temp_102.txt.gz
Temp
87 88 86 79 73 83 69 65 61 57 65 75 77 74 75 77 74 71 72 73 75 77 84 74 73 77 80 82 82 84 86 85
86 88 87 83 86 72 66 55 53 60 55 62 69 71 73 75 75 75 74 73 79 75 74 74 73 72 80 85 84 83 83 86
83 78 76 78 76 79 79 73 57 58 59 68 77 78 78 82 82 81 82 77 72 74 76 73 76 80 79 82 81 81 82 79
73 85 87 84 79 80 70 66 73 70 64 70 69 80 83 85 87 82 86 79 73 74 73 80 78 81 77 75 75 76 76 78
68 77 83 78 81 82 82 80 69 67 57 69 65 77 79 79 80 76 82 81 79 78 77 79 80 80 79 77 76 75 77 76
63 65 73 73 78 81 80 72 73 74 70 73 75 75 76 77 78 75 75 75 79 78 78 77 79 79 79 80 79 76 73 75
74 75 76 75 77 78 76 78 73 76 74 78 78 77 77 74 74 73 72 72 74 70 71 75 77 79 81 80 79 77 74 75
66 74 74 73 77 79 80 81 80 75 71 70 66 67 75 73 71 71 72 72 70 70 72 68 72 75 77 77 77 79 76 75
59 64 70 66 72 73 80 82 81 66 70 73 63 63 73 75 73 72 70 69 68 67 67 65 65 69 70 76 78 77 77 77
52 58 52 64 79 78 75 82 79 77 71 75 71 77 78 81 77 74 71 69 69 67 64 61 62 62 63 65 69 69 69 73
43 45 53 66 67 71 68 67 78 79 81 78 68 81 79 83 81 76 73 72 71 69 65 61 59 60 60 60 60 63 64 65
55 47 46 56 66 75 75 49 65 78 80 80 81 72 71 78 79 78 71 70 68 65 62 60 59 59 58 58 58 56 57 60
45 45 53 61 66 74 59 59 78 80 80 77 72 76 77 76 73 75 74 70 68 65 62 60 61 60 56 56 55 58 59 59
61 51 47 71 69 63 65 77 79 80 80 77 78 79 77 76 72 72 70 70 70 65 62 63 63 62 59 57 59 60 59 60
64 55 67 73 73 78 79 76 78 79 82 80 79 79 78 75 73 71 74 73 74 70 66 65 64 63 60 58 61 62 62 60
67 67 72 75 78 79 80 78 80 82 82 82 79 79 78 77 75 73 73 73 73 70 68 66 69 69 64 62 61 61 60 60
68 72 73 75 77 78 78 79 79 80 81 81 81 79 78 76 72 72 71 73 73 71 70 67 67 66 68 68 68 67 66 65
65 73 71 72 77 79 77 76 78 78 77 79 80 79 79 72 69 68 69 71 70 72 71 70 70 69 68 68 67 66 65 65
73 78 77 78 79 80 77 78 79 78 78 76 78 79 79 70 68 66 69 70 73 73 72 71 70 69 70 70 69 68 68 71

GFSFLT2_sfc_temp_105.txt.gz
Temp
80 80 75 66 58 68 51 51 50 52 56 61 70 69 72 70 70 69 71 72 74 77 71 72 70 78 77 75 75 76 77 76
78 79 78 68 72 56 57 44 43 51 51 53 61 62 68 69 71 75 74 74 73 73 71 71 70 71 75 75 75 77 78 77
71 66 65 64 59 61 60 58 51 45 50 62 64 69 68 71 73 74 73 73 71 71 70 70 70 70 74 73 75 75 76 75
61 76 78 70 65 62 53 53 56 56 51 68 69 70 73 72 74 73 76 75 71 70 69 68 69 70 70 71 74 75 75 73
56 65 70 65 68 62 62 61 55 55 51 68 70 71 74 73 72 72 71 69 68 68 69 69 71 71 72 73 72 72 72 72
48 56 66 63 69 69 58 54 56 57 56 59 65 65 67 64 66 66 72 70 67 67 68 69 71 73 72 71 70 70 71 72
63 67 69 69 69 70 63 62 54 59 60 58 58 66 64 66 67 66 67 68 68 68 69 69 70 70 70 72 70 70 70 70
56 61 64 62 70 72 71 71 67 61 53 60 62 64 65 66 68 66 65 66 66 66 66 66 67 70 73 72 71 70 70 70
45 55 58 57 60 65 62 63 70 60 59 59 59 62 65 67 69 67 67 64 65 64 63 63 64 65 65 70 72 71 70 71
42 49 41 54 65 66 61 61 61 65 65 64 62 65 65 69 68 67 66 65 63 61 61 61 62 62 63 67 69 69 70 69
40 40 51 58 60 60 57 55 62 58 64 67 69 67 68 72 69 67 66 66 64 62 60 59 60 61 61 61 62 62 62 65
42 39 39 51 65 67 66 49 63 63 60 62 64 56 62 69 68 65 65 63 60 61 60 59 58 59 59 58 58 57 58 61
44 43 48 60 65 67 49 53 63 63 58 59 54 59 63 64 64 65 63 61 61 61 59 59 60 59 56 57 56 58 58 59
42 38 41 67 66 58 61 67 66 62 61 62 62 65 66 64 64 65 61 61 61 60 59 60 60 59 56 55 57 58 59 60
49 46 54 65 64 67 68 66 67 67 68 69 67 67 68 65 63 64 63 62 61 59 59 60 60 59 58 55 56 57 56 58
55 58 62 66 68 70 70 69 70 71 71 72 69 68 68 65 64 67 67 63 62 59 56 55 57 57 55 55 59 56 54 54
56 61 65 68 69 68 70 72 72 72 71 70 72 68 67 68 67 67 67 66 62 60 58 57 58 55 55 55 55 54 57 56
51 61 59 62 67 70 69 68 69 69 68 70 69 69 68 63 65 67 66 66 65 61 59 58 57 57 58 58 58 56 55 55
61 66 67 68 70 72 69 70 72 69 69 67 68 67 65 62 65 62 66 65 65 61 62 60 59 58 58 58 58 57 55 56

GFSFLT2_sfc_temp_108.txt.gz
Temp
74 70 66 57 54 60 49 46 47 51 57 62 68 68 69 70 72 70 72 72 72 72 71 70 72 75 75 73 73 72 74 74
73 73 70 65 67 52 48 41 41 47 49 51 61 63 66 67 69 71 71 70 71 70 71 70 69 68 71 74 74 74 73 75
64 58 61 61 56 54 54 51 45 43 48 59 63 65 65 66 70 70 72 70 68 68 70 70 72 72 69 70 74 74 74 73
58 66 70 66 61 56 49 50 51 52 51 69 67 69 68 68 70 71 75 72 69 68 68 69 70 70 70 69 70 73 72 72
52 58 65 59 61 54 53 52 51 51 52 68 65 64 65 67 68 68 69 68 68 68 67 67 69 70 71 69 69 72 71 72
48 53 56 55 63 63 54 49 51 54 58 60 61 60 62 64 66 66 66 67 67 66 67 67 68 70 69 71 72 71 70 71
59 59 61 61 59 62 55 54 56 59 56 56 59 60 62 64 66 66 65 66 66 66 66 66 67 70 70 70 70 70 69 69
52 61 59 59 59 61 58 57 59 57 53 59 63 64 63 64 66 65 66 67 66 66 67 67 68 68 70 69 69 69 68 68
42 52 58 48 55 56 56 57 54 54 57 58 59 63 61 63 65 64 65 65 65 65 66 67 66 69 68 70 69 69 68 69
41 46 40 50 57 62 58 58 58 59 61 60 58 61 64 65 64 63 64 63 63 61 61 61 63 63 66 69 69 68 68 69
39 38 46 54 57 57 55 53 58 57 60 62 63 64 61 66 65 63 62 61 61 61 60 61 62 62 63 64 65 66 67 68
39 37 38 49 61 64 62 47 58 59 57 58 62 56 58 62 62 60 59 59 58 60 60 60 59 61 61 59 61 60 61 62
40 38 44 54 61 65 49 49 60 60 58 59 57 58 60 62 61 60 59 58 59 61 58 58 60 60 58 58 57 58 60 60
38 35 37 61 61 54 58 60 60 59 60 57 59 60 62 62 60 60 58 59 61 59 58 59 59 59 57 56 58 59 59 59
46 44 53 58 58 64 63 60 61 59 62 61 60 60 61 61 61 60 59 58 61 60 59 59 59 59 57 56 58 58 59 58
50 56 59 63 64 62 64 65 64 62 61 65 62 63 62 61 61 60 59 57 56 56 55 53 54 55 53 54 55 54 53 53
50 56 60 63 65 66 67 68 67 67 66 64 65 63 64 63 63 63 61 60 57 56 54 54 54 52 53 53 53 52 52 53
48 56 55 58 62 67 66 65 65 65 65 64 65 63 64 63 62 61 61 59 57 57 56 55 54 53 53 53 53 52 51 51
57 60 61 63 65 68 65 65 66 64 63 63 62 62 64 61 59 60 61 60 59 57 57 55 54 54 54 54 54 53 51 51

GFSFLT2_sfc_temp_111.txt.gz
Temp
69 67 66 57 49 55 46 44 43 50 57 62 66 66 68 68 73 69 70 69 74 74 73 71 72 73 74 71 70 71 71 71
67 67 65 60 62 50 46 42 36 46 49 50 60 63 67 67 67 69 71 70 71 72 72 72 72 72 72 72 71 71 71 71
61 57 57 56 53 51 50 47 41 40 48 60 65 66 65 67 70 70 72 70 70 69 71 71 72 71 71 71 71 71 71 71
55 61 64 58 51 51 48 46 46 47 51 64 65 65 64 66 68 69 73 72 70 69 68 69 70 70 70 69 71 72 72 71
49 55 60 58 58 49 48 47 45 46 52 63 66 63 63 64 65 68 69 67 67 67 67 68 69 68 68 68 68 70 71 70
42 49 52 51 56 56 50 46 46 50 57 60 61 62 61 62 64 66 67 68 67 67 66 66 67 67 68 69 69 70 71 72
51 57 58 54 55 55 50 47 48 54 56 59 59 60 61 63 65 65 65 67 67 66 66 66 66 67 68 69 71 70 71 70
48 58 60 53 56 57 55 53 53 53 53 58 61 62 62 63 65 64 66 68 68 69 68 66 67 69 69 69 69 69 69 70
42 50 58 48 51 54 54 56 52 47 52 62 60 59 59 61 63 63 65 65 64 64 66 66 67 68 68 68 69 68 68 69
42 44 41 50 55 58 57 56 56 57 59 60 59 60 61 62 63 63 62 62 62 62 62 62 64 65 67 68 68 68 67 67
39 37 45 56 56 55 50 51 57 56 59 61 62 63 59 62 62 61 61 61 61 61 60 62 63 63 66 66 67 67 67 68
38 37 37 49 59 61 59 45 57 57 59 59 59 54 57 60 60 58 58 58 60 60 60 60 61 62 62 64 66 66 67 67
39 36 43 53 59 61 45 48 58 58 59 58 57 58 59 61 58 57 57 57 60 59 57 59 61 61 59 60 59 61 63 63
36 34 37 57 57 51 54 55 61 57 58 59 59 60 59 58 57 56 56 59 60 58 57 58 58 58 57 57 59 60 62 62
44 43 51 54 54 58 59 57 58 59 60 58 59 60 60 58 58 58 58 59 60 58 58 58 59 59 56 56 58 58 58 58
48 49 54 56 58 60 62 61 61 61 61 60 58 60 59 58 59 58 58 57 58 59 57 56 56 55 56 55 56 56 56 57
48 51 56 60 61 62 62 63 64 63 63 63 61 59 58 57 57 58 57 56 56 55 53 52 51 52 53 53 53 52 51 51
47 55 54 58 61 63 62 62 62 62 61 62 62 60 60 57 57 57 55 56 55 54 53 53 51 51 51 52 52 51 50 50
57 57 58 61 63 64 62 61 62 62 62 60 60 61 60 58 57 57 56 57 56 56 55 53 52 52 52 51 52 51 50 50

GFSFLT2_sfc_temp_114.txt.gz
Temp
65 65 63 54 48 52 44 41 43 47 54 61 64 63 65 66 68 68 70 71 73 74 73 71 72 73 73 71 71 71 72 71
64 64 62 57 61 49 44 38 37 45 48 50 57 59 63 64 66 68 69 70 72 73 72 71 72 72 73 72 71 72 72 72
56 53 54 54 50 49 48 44 40 40 47 59 61 64 62 67 70 72 71 70 71 72 72 71 71 71 71 70 70 70 72 71
55 62 61 57 53 52 45 44 43 44 48 61 65 66 69 69 71 71 74 72 71 71 70 69 70 71 70 70 71 71 72 72
52 54 58 53 53 47 46 44 43 45 49 65 63 63 65 64 66 68 70 70 68 68 69 68 69 71 71 71 71 72 72 72
45 48 55 51 53 52 47 43 44 47 51 56 61 61 61 61 63 65 66 66 67 67 68 68 68 69 69 69 71 71 71 71
54 56 56 53 52 53 48 45 46 49 51 55 57 60 61 61 63 64 65 66 65 66 66 67 67 67 68 68 69 70 70 71
50 57 56 54 54 54 53 52 50 50 50 61 62 63 62 62 63 64 65 67 68 67 67 66 67 67 68 68 69 70 70 69
45 51 54 48 50 52 53 57 54 48 52 62 58 59 61 62 64 62 64 64 64 65 66 66 67 67 67 68 69 69 69 69
43 46 38 51 57 58 54 55 55 57 60 60 59 60 61 63 63 63 63 63 63 63 64 63 65 67 68 68 68 67 67 68
40 39 44 53 57 55 52 52 57 57 60 61 62 61 59 61 61 60 61 61 61 61 61 62 63 65 66 67 67 68 67 67
39 36 36 48 59 62 59 46 58 57 61 61 58 54 57 60 60 59 59 60 59 60 61 60 61 64 66 66 66 66 66 66
38 37 43 53 60 62 46 48 57 61 60 58 56 57 61 59 57 58 59 59 59 58 57 58 61 61 61 60 60 62 63 63
36 36 38 57 58 53 56 57 59 58 58 57 59 59 58 57 56 57 58 60 60 58 57 58 60 59 57 57 59 61 62 61
43 42 51 53 55 59 58 58 58 58 59 60 59 59 58 56 56 57 58 58 60 59 57 58 59 58 56 56 57 58 58 58
47 50 53 56 58 61 63 60 60 61 60 60 59 59 57 56 56 57 58 57 59 59 57 56 56 57 57 57 58 58 56 57
47 51 55 58 60 61 61 62 61 61 62 61 60 58 57 57 57 56 57 57 57 56 55 54 54 54 56 55 56 54 54 55
46 54 53 57 62 63 62 61 61 62 61 61 60 59 59 57 57 56 56 56 55 55 55 54 55 54 54 55 55 54 53 54
56 56 57 60 62 64 61 62 63 63 62 60 60 61 60 57 57 57 57 56 56 57 56 55 54 54 54 54 55 54 54 54

GFSFLT2_sfc_temp_117.txt.gz
Temp
71 71 72 64 61 70 59 57 54 58 63 71 73 72 69 68 73 73 73 80 81 83 78 81 81 82 82 81 80 81 82 81
71 73 71 69 71 58 58 50 50 58 57 61 65 67 68 68 70 75 74 75 80 81 82 82 82 82 83 83 81 82 83 82
68 67 67 66 65 64 62 61 56 53 62 69 68 70 66 68 72 75 73 72 74 74 75 77 82 81 80 81 81 81 81 81
65 72 71 71 69 70 62 56 61 59 62 69 69 73 71 71 72 73 71 72 74 73 72 77 79 81 80 79 80 81 82 80
62 66 68 66 66 65 65 65 61 59 64 72 71 71 72 72 74 76 75 70 71 70 68 72 78 79 79 79 79 80 80 80
57 60 63 60 62 64 62 62 65 65 66 68 65 66 68 71 75 75 75 74 70 72 68 70 75 77 76 76 74 78 79 80
63 63 64 61 61 61 60 60 59 64 61 63 63 64 68 69 70 71 70 74 73 73 74 70 68 73 78 73 72 78 76 79
58 64 64 59 60 61 59 59 61 61 61 64 64 67 68 69 69 70 69 71 72 71 69 68 69 70 71 75 73 72 77 77
55 61 59 53 57 60 61 63 61 60 63 64 61 63 64 68 70 70 70 72 72 71 67 67 66 68 68 70 73 73 74 74
55 56 44 60 63 66 64 64 66 63 63 61 59 60 61 65 66 64 64 64 66 69 67 68 70 70 68 69 69 70 68 69
50 49 54 57 61 60 61 65 68 63 63 62 61 62 60 62 63 62 62 62 62 64 64 66 68 72 71 70 69 70 68 70
51 47 46 58 64 67 66 57 69 67 64 64 65 59 59 61 62 62 63 62 61 61 62 62 63 65 68 68 68 68 67 67
51 50 55 62 66 67 53 58 67 69 66 65 64 66 62 61 60 63 64 62 61 61 59 60 62 63 63 64 63 65 65 66
52 49 48 64 64 59 63 66 67 67 64 62 59 60 61 62 61 62 61 62 63 61 59 59 60 60 59 59 61 63 63 64
56 58 62 64 64 68 66 66 66 66 63 61 62 65 65 62 64 65 65 64 64 62 60 60 58 59 56 56 59 60 60 59
57 61 63 64 67 66 68 69 69 69 68 69 66 66 65 65 66 66 66 65 66 65 60 59 60 59 58 58 58 58 56 56
59 62 65 67 66 68 68 69 69 70 70 69 68 67 67 66 66 67 66 66 66 65 63 62 62 62 63 62 63 62 61 60
64 67 67 69 70 70 69 69 70 69 68 70 69 67 68 67 67 66 65 66 65 64 63 62 63 62 62 63 65 64 63 64
69 70 69 72 71 70 71 70 71 72 71 68 69 69 69 67 67 61 67 67 66 65 64 64 63 62 63 65 65 65 65 65

GFSFLT2_sfc_temp_120.txt.gz
Temp
80 82 81 75 68 81 72 74 66 71 73 81 84 83 85 85 83 83 87 89 92 93 92 90 90 89 89 87 86 86 88 86
80 81 80 77 81 69 71 56 56 67 67 69 75 78 81 81 79 78 83 87 90 92 92 91 91 90 90 89 87 87 89 88
77 74 75 74 72 73 76 71 59 57 66 77 76 78 80 80 82 79 77 79 87 90 91 91 91 91 89 89 88 87 88 88
73 80 81 80 77 78 68 64 70 69 57 77 78 80 83 82 74 78 78 79 78 88 89 89 89 90 89 88 88 88 88 87
68 76 78 75 77 77 77 75 50 61 64 79 77 79 80 79 79 75 79 79 74 74 83 82 78 87 89 88 87 89 87 87
63 66 64 67 70 73 74 69 68 69 72 78 71 72 77 77 79 76 73 73 71 69 75 75 77 77 87 88 89 88 87 86
73 73 72 69 68 70 70 71 66 73 71 77 71 67 74 77 77 78 78 78 76 70 69 70 70 74 83 86 86 85 84 86
66 73 72 68 70 71 70 71 71 72 72 75 73 69 75 78 76 75 77 79 80 74 73 69 71 72 74 82 82 82 80 76
61 68 69 63 69 71 71 74 72 67 73 76 73 65 65 76 77 76 77 78 77 77 75 71 69 70 70 76 82 79 72 74
61 58 47 69 75 75 72 74 76 76 75 71 62 62 63 71 71 67 69 72 75 76 75 68 69 72 71 71 74 79 73 71
57 54 61 67 70 68 66 67 76 75 73 66 62 66 61 63 64 63 64 64 64 65 68 70 69 68 68 68 68 69 70 72
60 50 48 62 71 75 74 61 79 78 73 69 72 68 62 61 63 62 62 63 63 64 66 66 66 71 70 68 68 69 69 72
59 55 60 70 72 74 57 62 74 77 75 71 63 66 61 64 63 64 64 63 63 61 61 63 65 69 69 71 70 70 70 68
63 55 51 73 70 63 68 74 75 76 73 61 64 69 66 65 64 64 64 65 65 61 60 60 62 62 60 61 64 67 66 66
64 63 69 73 72 75 75 71 74 70 70 72 71 70 68 64 66 68 67 65 64 61 59 58 59 59 58 58 61 62 61 60
65 70 71 73 75 75 75 75 75 71 74 75 70 67 65 66 67 68 69 68 68 67 63 60 61 59 57 58 59 58 57 57
68 71 72 73 74 75 75 76 77 79 78 75 70 69 71 70 70 71 71 71 70 68 68 66 66 66 67 65 64 62 60 60
69 74 73 74 77 77 75 75 77 76 75 77 75 72 73 72 73 72 71 71 70 70 69 68 68 68 69 70 71 70 71 72
76 79 77 79 79 80 77 77 78 78 77 75 76 76 75 72 73 67 73 73 71 70 70 71 70 70 70 72 73 70 70 68